Provisional Data: Susquehanna River near Binghamton, NY


Please select a monitoring station.
Please select start date.
Please select start date.

Toggle Unit: C/F Toggle Unit: C/F
Sample Time Temperature (C) Temperature (F) Specific Conductivity (mS/cm) pH   Turbidity (NTU+) DO (mg/L)
3/7/2021 12:00:00 AM 7.6247 0.7096
3/7/2021 12:15:00 AM 7.6228 0.7271
3/7/2021 12:30:00 AM 7.625 0.7033
3/7/2021 12:45:00 AM 7.6277 0.6706
3/7/2021 1:00:00 AM 7.6248 0.6731
3/7/2021 1:15:00 AM 7.6201 0.6663
3/7/2021 1:30:00 AM 7.6167 0.6773
3/7/2021 1:45:00 AM 7.6125 0.639
3/7/2021 2:00:00 AM 7.6153 0.677
3/7/2021 2:15:00 AM 7.6275 0.6536
3/7/2021 2:30:00 AM 7.6392 0.6305
3/7/2021 2:45:00 AM 7.637 0.6998
3/7/2021 3:00:00 AM 7.6273 0.627
3/7/2021 3:15:00 AM 7.6296 0.6293
3/7/2021 3:30:00 AM 7.6371 0.6399
3/7/2021 3:45:00 AM 7.6317 0.6699
3/7/2021 4:00:00 AM 7.6383 0.6336
3/7/2021 4:15:00 AM 7.6358 0.6643
3/7/2021 4:30:00 AM 7.6362 0.6207
3/7/2021 4:45:00 AM 7.639 0.628
3/7/2021 5:00:00 AM 7.6403 0.638
3/7/2021 5:15:00 AM 7.6421 0.6383
3/7/2021 5:30:00 AM 7.6485 0.643
3/7/2021 5:45:00 AM 7.6398 0.6999
3/7/2021 6:00:00 AM 7.6628 0.6335
3/7/2021 6:15:00 AM 7.6544 0.6589
3/7/2021 6:30:00 AM 7.6422 0.6498
3/7/2021 6:45:00 AM 7.6464 0.6659
3/7/2021 7:00:00 AM 7.6501 0.6547
3/7/2021 7:15:00 AM 7.6509 0.6699
3/7/2021 7:30:00 AM 7.6628 0.6611
3/7/2021 7:45:00 AM 7.6573 0.6483
3/7/2021 8:00:00 AM 7.6692 0.6556
3/7/2021 8:15:00 AM 7.6699 0.6682
3/7/2021 8:30:00 AM 7.6837 0.6659
3/7/2021 8:45:00 AM 7.6902 0.6
3/7/2021 9:00:00 AM 7.6866 0.6627
3/7/2021 9:15:00 AM 7.6965 0.642
3/7/2021 9:30:00 AM 7.7046 0.6041
3/7/2021 9:45:00 AM 7.7026 0.5799
3/7/2021 10:00:00 AM 7.6979 0.59
3/7/2021 10:15:00 AM 7.7084 0.5703
3/7/2021 10:30:00 AM 7.7152 0.5643
3/7/2021 10:45:00 AM 7.7276 0.574
3/7/2021 11:00:00 AM 7.7396 0.6111
3/7/2021 11:15:00 AM 7.7302 0.5781
3/7/2021 11:30:00 AM 7.7291 0.5792
3/7/2021 11:45:00 AM 7.735 0.5998
3/7/2021 12:00:00 PM 7.7455 0.5919
3/7/2021 12:15:00 PM 7.7591 0.5788
3/7/2021 12:30:00 PM 7.7865 0.5747
3/7/2021 12:45:00 PM 7.786 0.5568
3/7/2021 1:00:00 PM 7.7896 0.5843
3/7/2021 1:15:00 PM 7.7888 0.5949
3/7/2021 1:30:00 PM 7.7963 0.5934
3/7/2021 1:45:00 PM 7.815 0.6165
3/7/2021 2:00:00 PM 7.8089 0.6606
3/7/2021 2:15:00 PM 7.8002 0.629
3/7/2021 2:30:00 PM 7.7988 0.6455
3/7/2021 2:45:00 PM 7.7939 0.6448
3/7/2021 3:00:00 PM 7.7966 0.6607
3/7/2021 3:15:00 PM 7.7928 0.6653
3/7/2021 3:30:00 PM 7.7969 0.6567
3/7/2021 3:45:00 PM 7.8009 0.6682
3/7/2021 4:00:00 PM 7.7965 0.6733
3/7/2021 4:15:00 PM 7.7855 0.6602
3/7/2021 4:30:00 PM 7.783 0.6702
3/7/2021 4:45:00 PM 7.7855 0.6399
3/7/2021 5:00:00 PM 7.8079 0.6315
3/7/2021 5:15:00 PM 7.8071 0.6257
3/7/2021 5:30:00 PM 7.8073 0.6301
3/7/2021 5:45:00 PM 7.8106 0.7
3/7/2021 6:00:00 PM 7.8063 0.6335
3/7/2021 6:15:00 PM 7.8052 0.6358
3/7/2021 6:30:00 PM 7.7968 0.6361
3/7/2021 6:45:00 PM 7.7891 0.6475
3/7/2021 7:00:00 PM 7.7829 0.6348
3/7/2021 7:15:00 PM 7.7856 0.6271
3/7/2021 7:30:00 PM 7.7879 0.6363
3/7/2021 7:45:00 PM 7.7814 0.6324
3/7/2021 8:00:00 PM 7.7963 0.6421
3/7/2021 8:15:00 PM 7.7905 0.6258
3/7/2021 8:30:00 PM 7.7849 0.6457
3/7/2021 8:45:00 PM 7.777 0.6
3/7/2021 9:00:00 PM 7.7744 0.6485
3/7/2021 9:15:00 PM 7.7662 0.6488
3/7/2021 9:30:00 PM 7.7606 0.6568
3/7/2021 9:45:00 PM 7.7574 0.6521
3/7/2021 10:00:00 PM 7.7517 0.6618
3/7/2021 10:15:00 PM 7.7555 0.6567
3/7/2021 10:30:00 PM 7.747 0.6516
3/7/2021 10:45:00 PM 7.7428 0.6495
3/7/2021 11:00:00 PM 7.7463 0.6704
3/7/2021 11:15:00 PM 7.746 0.6707
3/7/2021 11:30:00 PM 7.7384 0.6561
3/7/2021 11:45:00 PM 7.7378 0.6001
3/8/2021 12:00:00 AM 7.73 0.6651
3/8/2021 12:15:00 AM 7.7259 0.6382
3/8/2021 12:30:00 AM 7.7238 0.6302
3/8/2021 12:45:00 AM 7.7203 0.633
3/8/2021 1:00:00 AM 7.7148 0.6373
3/8/2021 1:15:00 AM 7.7131 0.6425
3/8/2021 1:30:00 AM 7.7137 0.6487
3/8/2021 1:45:00 AM 7.7142 0.6553
3/8/2021 2:00:00 AM 7.7083 0.6609
3/8/2021 2:15:00 AM 7.7026 0.6392
3/8/2021 2:30:00 AM 7.7039 0.6506
3/8/2021 2:45:00 AM 7.7112 0.6999
3/8/2021 3:00:00 AM 7.6967 0.6526
3/8/2021 3:15:00 AM 7.695 0.6436
3/8/2021 3:30:00 AM 7.688 0.6534
3/8/2021 3:45:00 AM 7.6885 0.6545
3/8/2021 4:00:00 AM 7.6923 0.6618
3/8/2021 4:15:00 AM 7.6871 0.6528
3/8/2021 4:30:00 AM 7.6806 0.6479
3/8/2021 4:45:00 AM 7.6777 0.6525
3/8/2021 5:00:00 AM 7.6802 0.658
3/8/2021 5:15:00 AM 7.676 0.6232
3/8/2021 5:30:00 AM 7.6853 0.5843
3/8/2021 5:45:00 AM 7.6832 0.5999
3/8/2021 6:00:00 AM 7.6809 0.5795
3/8/2021 6:15:00 AM 7.6721 0.5892
3/8/2021 6:30:00 AM 7.6706 0.5981
3/8/2021 6:45:00 AM 7.6702 0.5823
3/8/2021 7:00:00 AM 7.671 0.5715
3/8/2021 7:15:00 AM 7.6745 0.5513
3/8/2021 7:30:00 AM 7.6709 0.5446
3/8/2021 7:45:00 AM 7.6744 0.5362
3/8/2021 8:00:00 AM 7.6753 0.53
3/8/2021 8:15:00 AM 7.6782 0.5263
3/8/2021 8:30:00 AM 7.6982 0.551
3/8/2021 8:45:00 AM 7.7 0.6002
3/8/2021 9:00:00 AM 7.7087 0.5391
3/8/2021 9:15:00 AM 7.7182 0.5422
3/8/2021 9:30:00 AM 7.706 0.5408
3/8/2021 9:45:00 AM 7.7034 0.5577
3/8/2021 10:00:00 AM 7.7319 0.559
3/8/2021 10:15:00 AM 7.758 0.5228
3/8/2021 10:30:00 AM 7.7612 0.5233
3/8/2021 10:45:00 AM 7.7896 0.5295
3/8/2021 11:00:00 AM 7.7747 0.5204
3/8/2021 11:15:00 AM 7.7802 0.5318
3/8/2021 11:30:00 AM 7.7787 0.5338
3/8/2021 11:45:00 AM 7.7854 0.6
3/8/2021 12:00:00 PM 7.8034 0.5414
3/8/2021 12:15:00 PM 7.7993 0.5248
3/8/2021 12:30:00 PM 7.792 0.5282
3/8/2021 12:45:00 PM 7.7406 0.5341
3/8/2021 1:00:00 PM 7.7806 0.543
3/8/2021 1:15:00 PM 7.8091 0.5677
3/8/2021 1:30:00 PM 7.8079 0.5319
3/8/2021 1:45:00 PM 7.832 0.5306
3/8/2021 2:00:00 PM 7.8443 0.5237
3/8/2021 2:15:00 PM 7.8524 0.581
3/8/2021 2:30:00 PM 7.8611 0.6151
3/8/2021 2:45:00 PM 7.8696 0.6031
3/8/2021 3:00:00 PM 8.1237 0.6261
3/8/2021 3:15:00 PM 8.1013 0.6249
3/8/2021 3:30:00 PM 8.0846 0.5912
3/8/2021 3:45:00 PM 7.9294 0.5927
3/8/2021 4:00:00 PM 7.7775 0.5953
3/8/2021 4:15:00 PM 7.7655 0.582
3/8/2021 4:30:00 PM 7.7511 0.6103
3/8/2021 4:45:00 PM 7.88 0.5374
3/8/2021 5:00:00 PM 7.8443 0.551
3/8/2021 5:15:00 PM 7.7231 0.5371
3/8/2021 5:30:00 PM 7.7209 0.5426
3/8/2021 5:45:00 PM 7.714 0.5003
3/8/2021 6:00:00 PM 7.7973 0.5289
3/8/2021 6:15:00 PM 8.0472 0.5404
3/8/2021 6:30:00 PM 7.9697 0.5222
3/8/2021 6:45:00 PM 7.7971 0.5194
3/8/2021 7:00:00 PM 7.6855 0.5762
3/8/2021 7:15:00 PM 7.6719 0.5771
3/8/2021 7:30:00 PM 7.6755 0.5343
3/8/2021 7:45:00 PM 7.6786 0.5492
3/8/2021 8:00:00 PM 7.6752 0.5268
3/8/2021 8:15:00 PM 7.659 0.5449
3/8/2021 8:30:00 PM 7.653 0.5434
3/8/2021 8:45:00 PM 7.6538 0.5997
3/8/2021 9:00:00 PM 7.9764 0.639
3/8/2021 9:15:00 PM 7.8513 0.6439
3/8/2021 9:30:00 PM 7.6582 0.6394
3/8/2021 9:45:00 PM 7.6352 0.5755
3/8/2021 10:00:00 PM 7.6484 0.6097
3/8/2021 10:15:00 PM 7.6341 0.606
3/8/2021 10:30:00 PM 7.6366 0.636
3/8/2021 10:45:00 PM 7.6382 0.5471
3/8/2021 11:00:00 PM 7.6519 0.5549
3/8/2021 11:15:00 PM 7.6479 0.5522
3/8/2021 11:30:00 PM 7.6427 0.5763
3/8/2021 11:45:00 PM 7.637 0.5999
3/9/2021 12:00:00 AM 7.6328 0.5404
3/9/2021 12:15:00 AM 7.6529 0.5599
3/9/2021 12:30:00 AM 7.6476 0.6028
3/9/2021 12:45:00 AM 7.6268 0.6429
3/9/2021 1:00:00 AM 7.6262 0.6165
3/9/2021 1:15:00 AM 7.6259 0.6398
3/9/2021 1:30:00 AM 7.6249 0.6543
3/9/2021 1:45:00 AM 7.6244 0.6148
3/9/2021 2:00:00 AM 7.6199 0.6149
3/9/2021 2:15:00 AM 7.6213 0.6116
3/9/2021 2:30:00 AM 7.6267 0.6464
3/9/2021 2:45:00 AM 7.623 0.6002
3/9/2021 3:00:00 AM 7.6121 0.6687
3/9/2021 3:15:00 AM 7.6095 0.6512
3/9/2021 3:30:00 AM 7.6096 0.692
3/9/2021 3:45:00 AM 7.6071 0.8062
3/9/2021 4:00:00 AM 7.6026 0.6848
3/9/2021 4:15:00 AM 7.6012 0.6264
3/9/2021 4:30:00 AM 7.5997 0.648
3/9/2021 4:45:00 AM 7.5971 0.655
3/9/2021 5:00:00 AM 7.597 0.6485
3/9/2021 5:15:00 AM 7.5971 0.6494
3/9/2021 5:30:00 AM 7.5967 0.6461
3/9/2021 5:45:00 AM 7.5992 0.6998
3/9/2021 6:00:00 AM 7.5957 0.6446
3/9/2021 6:15:00 AM 7.5971 0.6513
3/9/2021 6:30:00 AM 7.5972 0.6614
3/9/2021 6:45:00 AM 7.5971 0.6587
3/9/2021 7:00:00 AM 7.5975 0.6179
3/9/2021 7:15:00 AM 7.6004 0.6205
3/9/2021 7:30:00 AM 7.6019 0.6206
3/9/2021 7:45:00 AM 7.6018 0.5689
3/9/2021 8:00:00 AM 7.6033 0.5721
3/9/2021 8:15:00 AM 7.6063 0.5332
3/9/2021 8:30:00 AM 7.607 0.5451
3/9/2021 8:45:00 AM 7.609 0.5999
3/9/2021 9:00:00 AM 7.6161 0.5353
3/9/2021 9:15:00 AM 7.6162 0.5228
3/9/2021 9:30:00 AM 7.6196 0.5382
3/9/2021 9:45:00 AM 7.6226 0.5357
3/9/2021 10:00:00 AM 7.6292 0.5306
3/9/2021 10:15:00 AM 7.6326 0.5366
3/9/2021 10:30:00 AM 7.6368 0.5786
3/9/2021 10:45:00 AM 7.6362 0.6141
3/9/2021 11:00:00 AM 7.6368 0.571
3/9/2021 11:15:00 AM 7.6417 0.5256
3/9/2021 11:30:00 AM 7.6445 0.5396
3/9/2021 11:45:00 AM 7.6454 0.5995
3/9/2021 12:00:00 PM 7.6462 0.5197
3/9/2021 12:15:00 PM 7.6459 0.5116
3/9/2021 12:30:00 PM 7.6477 0.5259
3/9/2021 12:45:00 PM 7.6469 0.5185
3/9/2021 1:00:00 PM 7.6466 0.5426
3/9/2021 1:15:00 PM 7.6459 0.5389
3/9/2021 1:30:00 PM 7.6451 0.6118
3/9/2021 1:45:00 PM 7.6443 0.6303
3/9/2021 2:00:00 PM 7.6437 0.6445
3/9/2021 2:15:00 PM 7.6405 0.662
3/9/2021 2:30:00 PM 7.6376 0.6532
3/9/2021 2:45:00 PM 7.6424 0.6541
3/9/2021 3:00:00 PM 7.6404 0.6453
3/9/2021 3:15:00 PM 7.6368 0.6618
3/9/2021 3:30:00 PM 7.638 0.6448
3/9/2021 3:45:00 PM 7.6416 0.6656
3/9/2021 4:00:00 PM 7.6464 0.6631
3/9/2021 4:15:00 PM 7.6529 0.6507
3/9/2021 4:30:00 PM 7.653 0.6741
3/9/2021 4:45:00 PM 7.6581 0.7895
3/9/2021 5:00:00 PM 7.6491 1.1692
3/9/2021 5:15:00 PM 7.644 1.6727
3/9/2021 5:30:00 PM 7.6351 2.2339
3/9/2021 5:45:00 PM 7.6328 2.6
3/9/2021 6:00:00 PM 7.6227 3.4057
3/9/2021 6:15:00 PM 7.6141 3.9347
3/9/2021 6:30:00 PM 7.6077 3.8225
3/9/2021 6:45:00 PM 7.5909 4.4885
3/9/2021 7:00:00 PM 7.5785 4.7303
3/9/2021 7:15:00 PM 7.568 4.5605
3/9/2021 7:30:00 PM 7.5609 4.4224
3/9/2021 7:45:00 PM 7.5567 4.3407
3/9/2021 8:00:00 PM 7.5486 4.2201
3/9/2021 8:15:00 PM 7.5404 3.8621
3/9/2021 8:30:00 PM 7.5391 3.5902
3/9/2021 8:45:00 PM 7.5376 3.5002
3/9/2021 9:00:00 PM 7.5291 3.1209
3/9/2021 9:15:00 PM 7.5294 2.7949
3/9/2021 9:30:00 PM 7.529 2.5293
3/9/2021 9:45:00 PM 7.5307 2.2638
3/9/2021 10:00:00 PM 7.5341 2.0814
3/9/2021 10:15:00 PM 7.5359 1.9425
3/9/2021 10:30:00 PM 7.5355 1.8186
3/9/2021 10:45:00 PM 7.5352 1.6812
3/9/2021 11:00:00 PM 7.5359 1.5522
3/9/2021 11:15:00 PM 7.5353 1.5085
3/9/2021 11:30:00 PM 7.5309 1.3934
3/9/2021 11:45:00 PM 7.5264 1.4
3/10/2021 12:00:00 AM 7.5296 1.2521
3/10/2021 12:15:00 AM 7.5316 1.2388
3/10/2021 12:30:00 AM 7.5357 1.2052
3/10/2021 12:45:00 AM 7.5291 1.2331
3/10/2021 1:00:00 AM 7.5296 1.2647
3/10/2021 1:15:00 AM 7.5315 1.228
3/10/2021 1:30:00 AM 7.523 1.1416
3/10/2021 1:45:00 AM 7.5201 1.1558
3/10/2021 2:00:00 AM 7.511 1.1451
3/10/2021 2:15:00 AM 7.4915 1.199
3/10/2021 2:30:00 AM 7.4809 1.2419
3/10/2021 2:45:00 AM 7.4774 1.2001
3/10/2021 3:00:00 AM 7.4692 1.2361
3/10/2021 3:15:00 AM 7.4639 1.2259
3/10/2021 3:30:00 AM 7.4632 1.2846
3/10/2021 3:45:00 AM 7.4598 1.3381
3/10/2021 4:00:00 AM 7.4564 1.369
3/10/2021 4:15:00 AM 7.4534 1.4534
3/10/2021 4:30:00 AM 7.4533 1.5067
3/10/2021 4:45:00 AM 7.4528 1.5367
3/10/2021 5:00:00 AM 7.4533 1.5589
3/10/2021 5:15:00 AM 7.4575 1.648
3/10/2021 5:30:00 AM 7.4556 1.6449
3/10/2021 5:45:00 AM 7.4494 1.6
3/10/2021 6:00:00 AM 7.4529 1.505
3/10/2021 6:15:00 AM 7.4559 1.5476
3/10/2021 6:30:00 AM 7.4576 1.5535
3/10/2021 6:45:00 AM 7.4577 1.5419
3/10/2021 7:00:00 AM 7.458 1.5525
3/10/2021 7:15:00 AM 7.4577 1.5497
3/10/2021 7:30:00 AM 7.4601 1.5381
3/10/2021 7:45:00 AM 7.4629 1.4715
3/10/2021 8:00:00 AM 7.4654 1.4328
3/10/2021 8:15:00 AM 7.4675 1.44
3/10/2021 8:30:00 AM 7.4718 1.4305
3/10/2021 8:45:00 AM 7.4746 1.4004
3/10/2021 9:00:00 AM 7.4783 1.3435
3/10/2021 9:15:00 AM 7.4825 1.3203
3/10/2021 9:30:00 AM 7.4866 1.356
3/10/2021 9:45:00 AM 7.4882 1.3068
3/10/2021 10:00:00 AM 7.4913 1.2593
3/10/2021 10:15:00 AM 7.4953 1.2333
3/10/2021 10:30:00 AM 7.4985 1.2541
3/10/2021 10:45:00 AM 7.5036 1.1826
3/10/2021 11:00:00 AM 7.5074 1.2071
3/10/2021 11:15:00 AM 7.5102 1.2322
3/10/2021 11:30:00 AM 7.5119 1.2519
3/10/2021 11:45:00 AM 7.5124 1.2002
3/10/2021 12:00:00 PM 7.519 1.1275
3/10/2021 12:15:00 PM 7.5195 1.1506
3/10/2021 12:30:00 PM 7.5198 1.1456
3/10/2021 12:45:00 PM 7.515 1.0847
3/10/2021 1:00:00 PM 7.5128 1.0392
3/10/2021 1:15:00 PM 7.5194 1.0247
3/10/2021 1:30:00 PM 7.519 1.026
3/10/2021 1:45:00 PM 7.5198 1.0501
3/10/2021 2:00:00 PM 7.5196 1.052
3/10/2021 2:15:00 PM 7.5198 1.0443
3/10/2021 2:30:00 PM 7.5194 1.041
3/10/2021 2:45:00 PM 7.5178 1.0587
3/10/2021 3:00:00 PM 7.5129 1.0368
3/10/2021 3:15:00 PM 7.5095 1.1543
3/10/2021 3:30:00 PM 7.5047 1.3021
3/10/2021 3:45:00 PM 7.4977 1.6661
3/10/2021 4:00:00 PM 7.4908 2.3055
3/10/2021 4:15:00 PM 7.4786 3.1108
3/10/2021 4:30:00 PM 7.471 4.2418
3/10/2021 4:45:00 PM 7.4622 5.6042
3/10/2021 5:00:00 PM 7.4528 6.1704
3/10/2021 5:15:00 PM 7.444 18.491
3/10/2021 5:30:00 PM 7.4218 6.9084
3/10/2021 5:45:00 PM 7.4172 7.2001
3/10/2021 6:00:00 PM 7.4038 7.8941
3/10/2021 6:15:00 PM 7.39 7.9847
3/10/2021 6:30:00 PM 7.3851 7.5884
3/10/2021 6:45:00 PM 7.3793 7.5716
3/10/2021 7:00:00 PM 7.3721 7.6463
3/10/2021 7:15:00 PM 7.367 7.2114
3/10/2021 7:30:00 PM 7.3678 6.6557
3/10/2021 7:45:00 PM 7.3701 6.3643
3/10/2021 8:00:00 PM 7.3701 6.2412
3/10/2021 8:15:00 PM 7.3707 5.464
3/10/2021 8:30:00 PM 7.3684 4.827
3/10/2021 8:45:00 PM 7.3668 4.6998
3/10/2021 9:00:00 PM 7.3665 4.1289
3/10/2021 9:15:00 PM 7.3691 3.8189
3/10/2021 9:30:00 PM 7.3705 3.6816
3/10/2021 9:45:00 PM 7.3708 3.7138
3/10/2021 10:00:00 PM 7.3752 3.1929
3/10/2021 10:15:00 PM 7.3811 3.2076
3/10/2021 10:30:00 PM 7.3852 2.8309
3/10/2021 10:45:00 PM 7.3908 2.7003
3/10/2021 11:00:00 PM 7.387 2.5432
3/10/2021 11:15:00 PM 7.3837 2.4053
3/10/2021 11:30:00 PM 7.3766 2.2906
3/10/2021 11:45:00 PM 7.3766 2.2
3/11/2021 12:00:00 AM 7.3716 2.2403
3/11/2021 12:15:00 AM 7.3701 2.2424
3/11/2021 12:30:00 AM 7.3657 2.2483
3/11/2021 12:45:00 AM 7.3631 2.3631
3/11/2021 1:00:00 AM 7.3611 2.4712
3/11/2021 1:15:00 AM 7.3624 2.6356
3/11/2021 1:30:00 AM 7.3664 2.8615
3/11/2021 1:45:00 AM 7.367 3.1277
3/11/2021 2:00:00 AM 7.3672 3.323
3/11/2021 2:15:00 AM 7.3656 3.5407
3/11/2021 2:30:00 AM 7.3594 3.6977
3/11/2021 2:45:00 AM 7.3556 3.7999
3/11/2021 3:00:00 AM 7.3528 4.0067
3/11/2021 3:15:00 AM 7.3546 4.1031
3/11/2021 3:30:00 AM 7.3547 4.1551
3/11/2021 3:45:00 AM 7.357 4.2103
3/11/2021 4:00:00 AM 7.3567 4.1467
3/11/2021 4:15:00 AM 7.3575 4.1242
3/11/2021 4:30:00 AM 7.3627 4.0412
3/11/2021 4:45:00 AM 7.3666 3.9479
3/11/2021 5:00:00 AM 7.3689 3.8279
3/11/2021 5:15:00 AM 7.3757 3.8318
3/11/2021 5:30:00 AM 7.3676 3.7407
3/11/2021 5:45:00 AM 7.3612 3.7
3/11/2021 6:00:00 AM 7.3569 3.5854
3/11/2021 6:15:00 AM 7.3565 3.5139
3/11/2021 6:30:00 AM 7.357 3.4404
3/11/2021 6:45:00 AM 7.3569 3.3386
3/11/2021 7:00:00 AM 7.3621 3.2627
3/11/2021 7:15:00 AM 7.3658 3.1555
3/11/2021 7:30:00 AM 7.3687 3.2318
3/11/2021 7:45:00 AM 7.3706 3.1851
3/11/2021 8:00:00 AM 7.3702 3.1488
3/11/2021 8:15:00 AM 7.3711 3.0718
3/11/2021 8:30:00 AM 7.3722 2.8891
3/11/2021 8:45:00 AM 7.3696 2.9999
3/11/2021 9:00:00 AM 7.358 2.7938
3/11/2021 9:15:00 AM 7.3545 2.6272
3/11/2021 9:30:00 AM 7.3517 2.5702
3/11/2021 9:45:00 AM 7.3505 2.7226
3/11/2021 10:00:00 AM 7.3509 2.5403
3/11/2021 10:15:00 AM 7.3505 2.3216
3/11/2021 10:30:00 AM 7.3505 2.2311
3/11/2021 10:45:00 AM 7.3483 2.2783
3/11/2021 11:00:00 AM 7.3383 2.2922
3/11/2021 11:15:00 AM 7.3253 2.3147
3/11/2021 11:30:00 AM 7.3178 2.3287
3/11/2021 11:45:00 AM 7.315 2.3002
3/11/2021 12:00:00 PM 7.3013 2.4194
3/11/2021 12:15:00 PM 7.2921 2.6021
3/11/2021 12:30:00 PM 7.293 2.7678
3/11/2021 12:45:00 PM 7.2945 3.102
3/11/2021 1:00:00 PM 7.2942 3.684
3/11/2021 1:15:00 PM 7.2938 4.2392
3/11/2021 1:30:00 PM 7.2874 4.9151
3/11/2021 1:45:00 PM 7.2766 5.633
3/11/2021 2:00:00 PM 7.2685 6.3151
3/11/2021 2:15:00 PM 7.2631 7.2203
3/11/2021 2:30:00 PM 7.2528 8.3626
3/11/2021 2:45:00 PM 7.2433 9.2015
3/11/2021 3:00:00 PM 7.2392 10.184
3/11/2021 3:15:00 PM 7.2322 11.0873
3/11/2021 3:30:00 PM 7.2306 11.6731
3/11/2021 3:45:00 PM 7.2297 12.1384
3/11/2021 4:00:00 PM 7.2262 12.2718
3/11/2021 4:15:00 PM 7.2261 12.0346
3/11/2021 4:30:00 PM 7.226 11.7161
3/11/2021 4:45:00 PM 7.2185 11.0196
3/11/2021 5:00:00 PM 7.2135 10.7151
3/11/2021 5:15:00 PM 7.2083 10.2848
3/11/2021 5:30:00 PM 7.2074 9.7527
3/11/2021 5:45:00 PM 7.2086 9.4
3/11/2021 6:00:00 PM 7.2122 8.8798
3/11/2021 6:15:00 PM 7.2167 8.3772
3/11/2021 6:30:00 PM 7.2175 7.9148
3/11/2021 6:45:00 PM 7.2181 7.4504
3/11/2021 7:00:00 PM 7.2172 7.2048
3/11/2021 7:15:00 PM 7.2195 6.8473
3/11/2021 7:30:00 PM 7.2241 6.5756
3/11/2021 7:45:00 PM 7.2288 6.4954
3/11/2021 8:00:00 PM 7.2301 6.3331
3/11/2021 8:15:00 PM 7.2276 6.2425
3/11/2021 8:30:00 PM 7.2201 6.4018
3/11/2021 8:45:00 PM 7.2184 6.5001
3/11/2021 9:00:00 PM 7.2084 6.9051
3/11/2021 9:15:00 PM 7.2072 7.2178
3/11/2021 9:30:00 PM 7.2025 7.6762
3/11/2021 9:45:00 PM 7.2021 8.096
3/11/2021 10:00:00 PM 7.1991 8.5601
3/11/2021 10:15:00 PM 7.1929 8.8371
3/11/2021 10:30:00 PM 7.1889 9.0483
3/11/2021 10:45:00 PM 7.1921 9.2317
3/11/2021 11:00:00 PM 7.1881 9.2463
3/11/2021 11:15:00 PM 7.183 9.2501
3/11/2021 11:30:00 PM 7.1827 9.2302
3/11/2021 11:45:00 PM 7.1834 9.3
3/12/2021 12:00:00 AM 7.176 9.0899
3/12/2021 12:15:00 AM 7.1743 9.073
3/12/2021 12:30:00 AM 7.176 9.0263
3/12/2021 12:45:00 AM 7.1659 8.9402
3/12/2021 1:00:00 AM 7.1633 8.8661
3/12/2021 1:15:00 AM 7.1628 8.6936
3/12/2021 1:30:00 AM 7.1589 8.5487
3/12/2021 1:45:00 AM 7.1597 8.4394
3/12/2021 2:00:00 AM 7.1588 8.3713
3/12/2021 2:15:00 AM 7.162 8.1581
3/12/2021 2:30:00 AM 7.1592 8.0062
3/12/2021 2:45:00 AM 7.1596 7.9001
3/12/2021 3:00:00 AM 7.1551 7.6366
3/12/2021 3:15:00 AM 7.1539 7.4937
3/12/2021 3:30:00 AM 7.154 7.414
3/12/2021 3:45:00 AM 7.156 7.2623
3/12/2021 4:00:00 AM 7.1535 7.154
3/12/2021 4:15:00 AM 7.1493 7.014
3/12/2021 4:30:00 AM 7.1365 6.8987
3/12/2021 4:45:00 AM 7.127 6.8191
3/12/2021 5:00:00 AM 7.1199 6.6967
3/12/2021 5:15:00 AM 7.1152 6.5376
3/12/2021 5:30:00 AM 7.1135 6.5045
3/12/2021 5:45:00 AM 7.1036 6.9998
3/12/2021 6:00:00 AM 7.1236 6.107
3/12/2021 6:15:00 AM 7.1214 5.94
3/12/2021 6:30:00 AM 7.1083 5.829
3/12/2021 6:45:00 AM 7.0971 5.7283
3/12/2021 7:00:00 AM 7.092 5.6377
3/12/2021 7:15:00 AM 7.0874 5.5284
3/12/2021 7:30:00 AM 7.0877 5.4213
3/12/2021 7:45:00 AM 7.0891 5.3009
3/12/2021 8:00:00 AM 7.0909 5.1673
3/12/2021 8:15:00 AM 7.0932 5.0914
3/12/2021 8:30:00 AM 7.0879 4.989
3/12/2021 8:45:00 AM 7.0826 4.9999
3/12/2021 9:00:00 AM 7.0734 4.8521
3/12/2021 9:15:00 AM 7.072 4.8501
3/12/2021 9:30:00 AM 7.0724 4.8129
3/12/2021 9:45:00 AM 7.0727 4.9905
3/12/2021 10:00:00 AM 7.0757 4.9832
3/12/2021 10:15:00 AM 7.0787 4.6736
3/12/2021 10:30:00 AM 7.0817 4.6585
3/12/2021 10:45:00 AM 7.082 4.6336
3/12/2021 11:00:00 AM 7.086 4.6413
3/12/2021 11:15:00 AM 7.0863 4.6096
3/12/2021 11:30:00 AM 7.0877 4.6592
3/12/2021 11:45:00 AM 7.0854 4.7
3/12/2021 12:00:00 PM 7.0919 4.8214
3/12/2021 12:15:00 PM 7.0946 4.8264
3/12/2021 12:30:00 PM 7.0966 5.4077
3/12/2021 12:45:00 PM 7.0954 5.9976
3/12/2021 1:00:00 PM 7.0955 5.9297
3/12/2021 1:15:00 PM 7.0965 5.9552
3/12/2021 1:30:00 PM 7.0992 5.9431
3/12/2021 1:45:00 PM 7.1014 5.9947
3/12/2021 2:00:00 PM 7.1019 6.0618
3/12/2021 2:15:00 PM 7.1015 6.1317
3/12/2021 2:30:00 PM 7.1013 6.2505
3/12/2021 2:45:00 PM 7.1016 6.2556
3/12/2021 3:00:00 PM 7.1016 6.4017
3/12/2021 3:15:00 PM 7.1015 6.5057
3/12/2021 3:30:00 PM 7.1003 6.7113
3/12/2021 3:45:00 PM 7.0969 6.9648
3/12/2021 4:00:00 PM 7.0959 6.7205
3/12/2021 4:15:00 PM 7.093 6.6132
3/12/2021 4:30:00 PM 7.0905 6.7193
3/12/2021 4:45:00 PM 7.0868 7.0452
3/12/2021 5:00:00 PM 7.0822 6.8133
3/12/2021 5:15:00 PM 7.0785 6.5496
3/12/2021 5:30:00 PM 7.0748 6.3971
3/12/2021 5:45:00 PM 7.0742 6.3996
3/12/2021 6:00:00 PM 7.0579 6.7126
3/12/2021 6:15:00 PM 7.0436 6.7805
3/12/2021 6:30:00 PM 7.0368 6.5975
3/12/2021 6:45:00 PM 7.0306 6.5857
3/12/2021 7:00:00 PM 7.0241 6.5517
3/12/2021 7:15:00 PM 7.0175 6.4989
3/12/2021 7:30:00 PM 7.0123 6.4959
3/12/2021 7:45:00 PM 7.0095 6.5154
3/12/2021 8:00:00 PM 7.0096 6.3816
3/12/2021 8:15:00 PM 7.0061 6.4228
3/12/2021 8:30:00 PM 7.0037 6.5299
3/12/2021 8:45:00 PM 7.0042 6.6002
3/12/2021 9:00:00 PM 7.001 6.5234
3/12/2021 9:15:00 PM 7.0002 6.5196
3/12/2021 9:30:00 PM 6.9983 6.9202
3/12/2021 9:45:00 PM 6.9997 6.8173
3/12/2021 10:00:00 PM 6.9971 6.7584
3/12/2021 10:15:00 PM 7.0001 6.8518
3/12/2021 10:30:00 PM 6.9999 6.9112
3/12/2021 10:45:00 PM 7.0004 6.9268
3/12/2021 11:00:00 PM 6.9967 7.061
3/12/2021 11:15:00 PM 7.0001 7.0406
3/12/2021 11:30:00 PM 6.9988 7.1053
3/12/2021 11:45:00 PM 6.9972 7.1
3/13/2021 12:00:00 AM 6.9995 7.1635
3/13/2021 12:15:00 AM 6.9975 7.1121
3/13/2021 12:30:00 AM 6.9959 7.0694
3/13/2021 12:45:00 AM 6.9955 7.019
3/13/2021 1:00:00 AM 6.9961 6.9516
3/13/2021 1:15:00 AM 6.9962 6.8981
3/13/2021 1:30:00 AM 6.9958 6.7862
3/13/2021 1:45:00 AM 6.9956 6.7508
3/13/2021 2:00:00 AM 6.9938 6.8475
3/13/2021 2:15:00 AM 6.9899 6.7964
3/13/2021 2:30:00 AM 6.9864 6.6981
3/13/2021 2:45:00 AM 6.9818 6.6001
3/13/2021 3:00:00 AM 6.9821 6.5357
3/13/2021 3:15:00 AM 6.9799 6.5312
3/13/2021 3:30:00 AM 6.9748 6.5623
3/13/2021 3:45:00 AM 6.971 6.4634
3/13/2021 4:00:00 AM 6.9673 6.4162
3/13/2021 4:15:00 AM 6.9663 6.4876
3/13/2021 4:30:00 AM 6.9619 6.3609
3/13/2021 4:45:00 AM 6.9615 6.3335
3/13/2021 5:00:00 AM 6.961 6.2525
3/13/2021 5:15:00 AM 6.9594 6.2288
3/13/2021 5:30:00 AM 6.9577 6.2685
3/13/2021 5:45:00 AM 6.958 6.2997
3/13/2021 6:00:00 AM 6.9539 5.7938
3/13/2021 6:15:00 AM 6.9636 5.9064
3/13/2021 6:30:00 AM 6.9615 5.98
3/13/2021 6:45:00 AM 6.9585 6.0731
3/13/2021 7:00:00 AM 6.9586 6.1638
3/13/2021 7:15:00 AM 6.9596 6.0579
3/13/2021 7:30:00 AM 6.9588 6.0775
3/13/2021 7:45:00 AM 6.9573 5.979
3/13/2021 8:00:00 AM 6.9596 6.1625
3/13/2021 8:15:00 AM 6.9614 6.5644
3/13/2021 8:30:00 AM 6.9625 6.0407
3/13/2021 8:45:00 AM 6.9636 6.0001
3/13/2021 9:00:00 AM 6.9638 5.8591
3/13/2021 9:15:00 AM 6.9632 5.8283
3/13/2021 9:30:00 AM 6.9659 5.7446
3/13/2021 9:45:00 AM 6.9631 5.6396
3/13/2021 10:00:00 AM 6.9655 5.5954
3/13/2021 10:15:00 AM 6.9661 5.5701
3/13/2021 10:30:00 AM 6.967 5.5571
3/13/2021 10:45:00 AM 6.9667 5.4894
3/13/2021 11:00:00 AM 6.9675 5.4639
3/13/2021 11:15:00 AM 6.9703 5.3457
3/13/2021 11:30:00 AM 6.9693 5.3428
3/13/2021 11:45:00 AM 6.9692 5.3001
3/13/2021 12:00:00 PM 6.9711 5.2445
3/13/2021 12:15:00 PM 6.9713 5.2937
3/13/2021 12:30:00 PM 6.9684 5.5241
3/13/2021 12:45:00 PM 6.9509 5.3415
3/13/2021 1:00:00 PM 6.9651 5.0435
3/13/2021 1:15:00 PM 6.9722 4.9269
3/13/2021 1:30:00 PM 6.9744 4.8483
3/13/2021 1:45:00 PM 6.979 4.829
3/13/2021 2:00:00 PM 6.9801 4.8386
3/13/2021 2:15:00 PM 6.9799 4.8395
3/13/2021 2:30:00 PM 6.9822 4.8433
3/13/2021 2:45:00 PM 6.9851 4.8341
3/13/2021 3:00:00 PM 6.9944 4.7746
3/13/2021 3:15:00 PM 6.9953 4.8512
3/13/2021 3:30:00 PM 6.9964 4.8464
3/13/2021 3:45:00 PM 6.9984 4.787
3/13/2021 4:00:00 PM 7.0002 4.7294
3/13/2021 4:15:00 PM 7.0013 4.719
3/13/2021 4:30:00 PM 7.0039 4.7564
3/13/2021 4:45:00 PM 7.0034 4.8269
3/13/2021 5:00:00 PM 7.005 4.8935
3/13/2021 5:15:00 PM 7.005 4.9369
3/13/2021 5:30:00 PM 7.0048 4.8331
3/13/2021 5:45:00 PM 7.0042 4.9003
3/13/2021 6:00:00 PM 7.0022 5.039
3/13/2021 6:15:00 PM 6.9999 5.1626
3/13/2021 6:30:00 PM 7.021 5.1004
3/13/2021 6:45:00 PM 7.0868 5.1079
3/13/2021 7:00:00 PM 7.2521 5.104
3/13/2021 7:15:00 PM 7.3831 5.2565
3/13/2021 7:30:00 PM 7.4221 5.3527
3/13/2021 7:45:00 PM 7.4617 5.2061
3/13/2021 8:00:00 PM 7.4517 5.1545
3/13/2021 8:15:00 PM 7.4325 5.2273
3/13/2021 8:30:00 PM 7.4343 5.1114
3/13/2021 8:45:00 PM 7.4452 5.0996
3/13/2021 9:00:00 PM 7.445 5.1634
3/13/2021 9:15:00 PM 7.4475 5.1314
3/13/2021 9:30:00 PM 7.4208 5.1552
3/13/2021 9:45:00 PM 7.4117 5.0939
3/13/2021 10:00:00 PM 7.4338 5.3052
3/13/2021 10:15:00 PM 7.4571 5.2847
3/13/2021 10:30:00 PM 7.4483 5.2097
3/13/2021 10:45:00 PM 7.4466 5.147
3/13/2021 11:00:00 PM 7.4463 5.1678
3/13/2021 11:15:00 PM 7.429 5.1273
3/13/2021 11:30:00 PM 7.3735 5.1004
3/13/2021 11:45:00 PM 7.357 4.9998
3/14/2021 12:00:00 AM 7.347 5.057
3/14/2021 12:15:00 AM 7.3478 4.9736
3/14/2021 12:30:00 AM 7.3471 5.0051
3/14/2021 12:45:00 AM 7.353 5.0032
3/14/2021 1:00:00 AM 7.364 4.948
3/14/2021 1:15:00 AM 7.3687 4.9604
3/14/2021 1:30:00 AM 7.3657 4.9037
3/14/2021 1:45:00 AM 7.364 4.8395
3/14/2021 3:00:00 AM 7.3667 4.8368
3/14/2021 3:15:00 AM 7.3596 4.8571
3/14/2021 3:30:00 AM 7.3503 4.8429
3/14/2021 3:45:00 AM 7.3405 4.8406
3/14/2021 4:00:00 AM 7.3291 4.8388
3/14/2021 4:15:00 AM 7.3279 4.8327
3/14/2021 4:30:00 AM 7.3306 4.7775
3/14/2021 4:45:00 AM 7.3337 4.724
3/14/2021 5:00:00 AM 7.3301 4.7606
3/14/2021 5:15:00 AM 7.3205 4.7666
3/14/2021 5:30:00 AM 7.3146 4.7904
3/14/2021 5:45:00 AM 7.315 4.8001
3/14/2021 6:00:00 AM 7.3093 5.3664
3/14/2021 6:15:00 AM 7.3184 5.1822
3/14/2021 6:30:00 AM 7.3037 5.2004
3/14/2021 6:45:00 AM 7.2909 5.14
3/14/2021 7:00:00 AM 7.2944 4.7658
3/14/2021 7:15:00 AM 7.2942 4.7161
3/14/2021 7:30:00 AM 7.2953 4.7433
3/14/2021 7:45:00 AM 7.2975 4.6775
3/14/2021 8:00:00 AM 7.3132 4.5909
3/14/2021 8:15:00 AM 7.3279 4.5442
3/14/2021 8:30:00 AM 7.331 4.4764
3/14/2021 8:45:00 AM 7.329 4.3996
3/14/2021 9:00:00 AM 7.3227 4.4852
3/14/2021 9:15:00 AM 7.3193 5.5485
3/14/2021 9:30:00 AM 7.3149 4.7552
3/14/2021 9:45:00 AM 7.3418 4.4883
3/14/2021 10:00:00 AM 7.3393 4.4318
3/14/2021 10:15:00 AM 7.3273 4.4216
3/14/2021 10:30:00 AM 7.3208 4.2672
3/14/2021 10:45:00 AM 7.3225 4.3055
3/14/2021 11:00:00 AM 7.3175 4.3852
3/14/2021 11:15:00 AM 7.3068 4.3341
3/14/2021 11:30:00 AM 7.2933 4.3821
3/14/2021 11:45:00 AM 7.2912 4.4999
3/14/2021 12:00:00 PM 7.2926 5.1286
3/14/2021 12:15:00 PM 7.2956 5.0748
3/14/2021 12:30:00 PM 7.3284 5.1054
3/14/2021 12:45:00 PM 7.3971 4.8916
3/14/2021 1:00:00 PM 7.3521 4.728
3/14/2021 1:15:00 PM 7.332 4.5654
3/14/2021 1:30:00 PM 7.3196 4.3436
3/14/2021 1:45:00 PM 7.3067 4.3243
3/14/2021 2:00:00 PM 7.2959 4.4265
3/14/2021 2:15:00 PM 7.2775 4.4155
3/14/2021 2:30:00 PM 7.268 4.5388
3/14/2021 2:45:00 PM 7.2666 4.7516
3/14/2021 3:00:00 PM 7.2625 4.5015
3/14/2021 3:15:00 PM 7.2531 4.5058
3/14/2021 3:30:00 PM 7.2528 4.555
3/14/2021 3:45:00 PM 7.2541 4.3944
3/14/2021 4:00:00 PM 7.2473 4.2704
3/14/2021 4:15:00 PM 7.2497 4.2347
3/14/2021 4:30:00 PM 7.2582 4.1056
3/14/2021 4:45:00 PM 7.2572 3.8327
3/14/2021 5:00:00 PM 7.2433 3.8551
3/14/2021 5:15:00 PM 7.2451 3.8472
3/14/2021 5:30:00 PM 7.2503 3.8356
3/14/2021 5:45:00 PM 7.259 3.8
3/14/2021 6:00:00 PM 7.248 3.8928
3/14/2021 6:15:00 PM 7.2547 3.7385
3/14/2021 6:30:00 PM 7.2548 3.8496
3/14/2021 6:45:00 PM 7.2446 3.8765
3/14/2021 7:00:00 PM 7.2461 3.6523
3/14/2021 7:15:00 PM 7.2427 3.5268
3/14/2021 7:30:00 PM 7.2419 3.446
3/14/2021 7:45:00 PM 7.2433 3.4179
3/14/2021 8:00:00 PM 7.2472 3.4509
3/14/2021 8:15:00 PM 7.239 3.5823
3/14/2021 8:30:00 PM 7.2373 3.4724
3/14/2021 8:45:00 PM 7.2422 3.4
3/14/2021 9:00:00 PM 7.2316 3.6486
3/14/2021 9:15:00 PM 7.2302 3.6644
3/14/2021 9:30:00 PM 7.232 3.8295
3/14/2021 9:45:00 PM 7.242 4.2261
3/14/2021 10:00:00 PM 7.2572 4.5639
3/14/2021 10:15:00 PM 7.2481 4.64
3/14/2021 10:30:00 PM 7.234 4.3536
3/14/2021 10:45:00 PM 7.3342 4.1633
3/14/2021 11:00:00 PM 7.3468 3.9454
3/14/2021 11:15:00 PM 7.3002 3.7766
3/14/2021 11:30:00 PM 7.2857 3.6635
3/14/2021 11:45:00 PM 7.2856 3.5003
3/15/2021 12:00:00 AM 7.267 3.6817
3/15/2021 12:15:00 AM 7.2524 3.5431
3/15/2021 12:30:00 AM 7.2511 3.5913
3/15/2021 12:45:00 AM 7.2463 3.6113
3/15/2021 1:00:00 AM 7.2391 3.5167
3/15/2021 1:15:00 AM 7.2431 3.4397
3/15/2021 1:30:00 AM 7.2392 3.3892
3/15/2021 1:45:00 AM 7.2403 3.3538
3/15/2021 2:00:00 AM 7.249 3.3202
3/15/2021 2:15:00 AM 7.2504 3.332
3/15/2021 2:30:00 AM 7.2588 3.3096
3/15/2021 2:45:00 AM 7.2632 3.4
3/15/2021 3:00:00 AM 7.245 3.3507
3/15/2021 3:15:00 AM 7.2354 3.3514
3/15/2021 3:30:00 AM 7.2372 3.3282
3/15/2021 3:45:00 AM 7.2487 3.3011
3/15/2021 4:00:00 AM 7.2574 3.2387
3/15/2021 4:15:00 AM 7.2591 3.2529
3/15/2021 4:30:00 AM 7.2726 3.1604
3/15/2021 4:45:00 AM 7.2799 3.1436
3/15/2021 5:00:00 AM 7.1606 3.2907
3/15/2021 5:15:00 AM 7.2149 3.1434
3/15/2021 5:30:00 AM 7.2403 3.1437
3/15/2021 5:45:00 AM 7.252 3.1002
3/15/2021 6:00:00 AM 7.253 3.1325
3/15/2021 6:15:00 AM 7.2446 3.1116
3/15/2021 6:30:00 AM 7.2412 3.0379
3/15/2021 6:45:00 AM 7.2389 3.0309
3/15/2021 7:00:00 AM 7.2367 3.0331
3/15/2021 7:15:00 AM 7.2342 3.006
3/15/2021 7:30:00 AM 7.2342 3.0218
3/15/2021 7:45:00 AM 7.2349 3.0114
3/15/2021 8:00:00 AM 7.237 3.0285
3/15/2021 8:15:00 AM 7.2397 2.99
3/15/2021 8:30:00 AM 7.2424 2.9903
3/15/2021 8:45:00 AM 7.2436 3.0997
3/15/2021 9:00:00 AM 7.2647 3.0519
3/15/2021 9:15:00 AM 7.2578 3.0454
3/15/2021 9:30:00 AM 7.2468 3.124
3/15/2021 9:45:00 AM 7.2391 3.0337
3/15/2021 10:00:00 AM 7.2424 3.0461
3/15/2021 10:15:00 AM 7.2446 3.0494
3/15/2021 10:30:00 AM 7.2447 3.0408
3/15/2021 10:45:00 AM 7.2442 3.0473
3/15/2021 11:00:00 AM 7.2371 3.0562
3/15/2021 11:15:00 AM 7.2384 3.1371
3/15/2021 11:30:00 AM 7.232 3.2311
3/15/2021 11:45:00 AM 7.2282 3.2001
3/15/2021 12:00:00 PM 7.3899 3.1579
3/15/2021 12:15:00 PM 7.6148 3.1104
3/15/2021 12:30:00 PM 7.6405 3.0368
3/15/2021 12:45:00 PM 7.6573 2.9365
3/15/2021 1:00:00 PM 7.6382 2.9353
3/15/2021 1:15:00 PM 7.6245 2.9544
3/15/2021 1:30:00 PM 7.6067 2.9694
3/15/2021 1:45:00 PM 7.6098 2.9343
3/15/2021 2:00:00 PM 7.6264 2.8393
3/15/2021 2:15:00 PM 7.6342 2.8327
3/15/2021 2:30:00 PM 7.6448 2.8381
3/15/2021 2:45:00 PM 7.6388 2.8614
3/15/2021 3:00:00 PM 7.6159 2.858
3/15/2021 3:15:00 PM 7.5981 2.8366
3/15/2021 3:30:00 PM 7.5852 2.8384
3/15/2021 3:45:00 PM 7.5735 2.829
3/15/2021 4:00:00 PM 7.5629 2.8293
3/15/2021 4:15:00 PM 7.55 2.7483
3/15/2021 4:30:00 PM 7.5446 2.7371
3/15/2021 4:45:00 PM 7.5347 2.7538
3/15/2021 5:00:00 PM 7.5319 2.7473
3/15/2021 5:15:00 PM 7.5205 2.6989
3/15/2021 5:30:00 PM 7.5135 2.6388
3/15/2021 5:45:00 PM 7.5096 2.6998
3/15/2021 6:00:00 PM 7.5106 2.6185
3/15/2021 6:15:00 PM 7.5059 2.5638
3/15/2021 6:30:00 PM 7.5007 2.5386
3/15/2021 6:45:00 PM 7.487 2.5374
3/15/2021 7:00:00 PM 7.4793 2.5286
3/15/2021 7:15:00 PM 7.4751 2.4834
3/15/2021 7:30:00 PM 7.4688 2.4337
3/15/2021 7:45:00 PM 7.4677 2.4229
3/15/2021 8:00:00 PM 7.4571 2.4349
3/15/2021 8:15:00 PM 7.4464 2.4193
3/15/2021 8:30:00 PM 7.4417 2.4489
3/15/2021 8:45:00 PM 7.434 2.5
3/15/2021 9:00:00 PM 7.4286 2.4393
3/15/2021 9:15:00 PM 7.4231 2.464
3/15/2021 9:30:00 PM 7.415 2.4672
3/15/2021 9:45:00 PM 7.4031 2.6832
3/15/2021 10:00:00 PM 7.4167 2.4892
3/15/2021 10:15:00 PM 7.4485 2.4411
3/15/2021 10:30:00 PM 7.4438 2.4849
3/15/2021 10:45:00 PM 7.5285 2.4324
3/15/2021 11:00:00 PM 7.6364 2.4989
3/15/2021 11:15:00 PM 7.6904 2.5399
3/15/2021 11:30:00 PM 7.7014 2.5495
3/15/2021 11:45:00 PM 7.7238 2.5999
3/16/2021 12:00:00 AM 7.728 2.5593
3/16/2021 12:15:00 AM 7.7129 2.5379
3/16/2021 12:30:00 AM 7.7046 2.4824
3/16/2021 12:45:00 AM 7.6924 2.4741
3/16/2021 1:00:00 AM 7.6853 2.436
3/16/2021 1:15:00 AM 7.6738 2.4399
3/16/2021 1:30:00 AM 7.669 2.4321
3/16/2021 1:45:00 AM 7.6668 2.4272
3/16/2021 2:00:00 AM 7.6629 2.4468
3/16/2021 2:15:00 AM 7.655 2.6105
3/16/2021 2:30:00 AM 7.6474 2.6483
3/16/2021 2:45:00 AM 7.6454 2.6999
3/16/2021 3:00:00 AM 7.6368 2.5301
3/16/2021 3:15:00 AM 7.6276 2.5524
3/16/2021 3:30:00 AM 7.6306 2.4952
3/16/2021 3:45:00 AM 7.62 2.4846
3/16/2021 4:00:00 AM 7.6129 2.4644
3/16/2021 4:15:00 AM 7.6118 2.5361
3/16/2021 4:30:00 AM 7.6155 2.526
3/16/2021 4:45:00 AM 7.6119 2.4451
3/16/2021 5:00:00 AM 7.6105 2.4368
3/16/2021 5:15:00 AM 7.6037 2.44
3/16/2021 5:30:00 AM 7.5861 2.5173
3/16/2021 5:45:00 AM 7.4886 2.8
3/16/2021 6:00:00 AM 7.5464 2.4624
3/16/2021 6:15:00 AM 7.5715 2.4284
3/16/2021 6:30:00 AM 7.5837 2.374
3/16/2021 6:45:00 AM 7.5919 2.3519
3/16/2021 7:00:00 AM 7.6024 2.3376
3/16/2021 7:15:00 AM 7.6074 2.3544
3/16/2021 7:30:00 AM 7.6099 2.3423
3/16/2021 7:45:00 AM 7.6118 2.3267
3/16/2021 8:00:00 AM 7.6088 2.4316
3/16/2021 8:15:00 AM 7.6013 2.4758
3/16/2021 8:30:00 AM 7.5932 2.5929
3/16/2021 8:45:00 AM 7.5922 2.6002
3/16/2021 9:00:00 AM 7.5853 2.8466
3/16/2021 9:15:00 AM 7.5808 3.0205
3/16/2021 9:30:00 AM 7.5723 2.5879
3/16/2021 9:45:00 AM 7.5642 2.4113
3/16/2021 10:00:00 AM 7.5624 2.5067
3/16/2021 10:15:00 AM 7.5664 2.8894
3/16/2021 10:30:00 AM 7.5683 2.8486
3/16/2021 10:45:00 AM 7.5664 2.4956
3/16/2021 11:00:00 AM 7.5578 2.4672
3/16/2021 11:15:00 AM 7.5548 2.3929
3/16/2021 11:30:00 AM 7.5615 2.3843
3/16/2021 11:45:00 AM 7.56 2.3998
3/16/2021 12:00:00 PM 7.5586 2.2287
3/16/2021 12:15:00 PM 7.5768 2.1717
3/16/2021 12:30:00 PM 7.5759 2.2264
3/16/2021 12:45:00 PM 7.5667 2.2802
3/16/2021 1:00:00 PM 7.5735 2.1977
3/16/2021 1:15:00 PM 7.5896 2.1453
3/16/2021 1:30:00 PM 7.5869 2.1635
3/16/2021 1:45:00 PM 7.5776 2.1435
3/16/2021 2:00:00 PM 7.5968 2.0875
3/16/2021 2:15:00 PM 7.602 2.0535
3/16/2021 2:30:00 PM 7.6268 2.09
3/16/2021 2:45:00 PM 7.6006 2.0562
3/16/2021 3:00:00 PM 7.6041 2.0628
3/16/2021 3:15:00 PM 7.6031 2.0901
3/16/2021 3:30:00 PM 7.5911 2.0954
3/16/2021 3:45:00 PM 7.6019 2.0521
3/16/2021 4:00:00 PM 7.6118 2.0578
3/16/2021 4:15:00 PM 7.6051 2.03
3/16/2021 4:30:00 PM 7.5998 2.0322
3/16/2021 4:45:00 PM 7.5997 2.03
3/16/2021 5:00:00 PM 7.595 2.0243
3/16/2021 5:15:00 PM 7.5911 2.0315
3/16/2021 5:30:00 PM 7.5899 2.0477
3/16/2021 5:45:00 PM 7.588 2.0999
3/16/2021 6:00:00 PM 7.6104 2.0408
3/16/2021 6:15:00 PM 7.5983 2.0575
3/16/2021 6:30:00 PM 7.5904 2.2032
3/16/2021 6:45:00 PM 7.5826 2.256
3/16/2021 7:00:00 PM 7.5846 2.2486
3/16/2021 7:15:00 PM 7.5936 2.2994
3/16/2021 7:30:00 PM 7.5833 2.3029
3/16/2021 7:45:00 PM 7.5899 2.177
3/16/2021 8:00:00 PM 7.5721 2.1485
3/16/2021 8:15:00 PM 7.5671 2.1442
3/16/2021 8:30:00 PM 7.5612 2.1403
3/16/2021 8:45:00 PM 7.567 2.2
3/16/2021 9:00:00 PM 7.5574 2.1398
3/16/2021 9:15:00 PM 7.5529 2.0893
3/16/2021 9:30:00 PM 7.5459 2.1138
3/16/2021 9:45:00 PM 7.5419 2.1449
3/16/2021 10:00:00 PM 7.5373 2.0579
3/16/2021 10:15:00 PM 7.5334 2.0431
3/16/2021 10:30:00 PM 7.5287 1.9845
3/16/2021 10:45:00 PM 7.5252 1.9437
3/16/2021 11:00:00 PM 7.5242 1.9811
3/16/2021 11:15:00 PM 7.5214 1.9318
3/16/2021 11:30:00 PM 7.5184 1.9325
3/16/2021 11:45:00 PM 7.5208 1.9001
3/17/2021 12:00:00 AM 7.5173 1.9282
3/17/2021 12:15:00 AM 7.5149 1.9428
3/17/2021 12:30:00 AM 7.5151 1.9233
3/17/2021 12:45:00 AM 7.5086 2.0207
3/17/2021 1:00:00 AM 7.5045 2.1493
3/17/2021 1:15:00 AM 7.5057 2.0799
3/17/2021 1:30:00 AM 7.503 1.9795
3/17/2021 1:45:00 AM 7.4978 1.9949
3/17/2021 2:00:00 AM 7.4919 1.9746
3/17/2021 2:15:00 AM 7.4871 1.9486
3/17/2021 2:30:00 AM 7.4842 1.9505
3/17/2021 2:45:00 AM 7.4816 2
3/17/2021 3:00:00 AM 7.4784 1.9253
3/17/2021 3:15:00 AM 7.4751 1.9277
3/17/2021 3:30:00 AM 7.4754 1.9523
3/17/2021 3:45:00 AM 7.4789 1.93
3/17/2021 4:00:00 AM 7.4814 1.9035
3/17/2021 4:15:00 AM 7.4844 1.9674
3/17/2021 4:30:00 AM 7.4789 1.9354
3/17/2021 4:45:00 AM 7.4758 1.9613
3/17/2021 5:00:00 AM 7.4741 1.9474
3/17/2021 5:15:00 AM 7.4723 1.9247
3/17/2021 5:30:00 AM 7.4068 2.058
3/17/2021 5:45:00 AM 7.364 2.0001
3/17/2021 6:00:00 AM 7.4516 1.9469
3/17/2021 6:15:00 AM 7.4997 1.9154
3/17/2021 6:30:00 AM 7.4907 1.9275
3/17/2021 6:45:00 AM 7.47 1.9602
3/17/2021 7:00:00 AM 7.5126 1.9067
3/17/2021 7:15:00 AM 7.5379 1.9125
3/17/2021 7:30:00 AM 7.5341 1.9521
3/17/2021 7:45:00 AM 7.5234 1.9409
3/17/2021 8:00:00 AM 7.5194 1.9481
3/17/2021 8:15:00 AM 7.5212 1.9275
3/17/2021 8:30:00 AM 7.5135 1.8401
3/17/2021 8:45:00 AM 7.5096 1.8
3/17/2021 9:00:00 AM 7.4987 1.8538
3/17/2021 9:15:00 AM 7.5025 1.933
3/17/2021 9:30:00 AM 7.5153 1.9306
3/17/2021 9:45:00 AM 7.5036 1.9301
3/17/2021 10:00:00 AM 7.5158 1.9426
3/17/2021 10:15:00 AM 7.5778 2.0195
3/17/2021 10:30:00 AM 7.5657 1.9319
3/17/2021 10:45:00 AM 7.5675 1.8518
3/17/2021 11:00:00 AM 7.5683 1.9503
3/17/2021 11:15:00 AM 7.5716 1.8725
3/17/2021 11:30:00 AM 7.5596 1.8399
3/17/2021 11:45:00 AM 7.5527 1.81
3/17/2021 12:00:00 PM 7.5478 1.7206
3/17/2021 12:15:00 PM 7.5667 1.7514
3/17/2021 12:30:00 PM 7.5826 1.7287
3/17/2021 12:45:00 PM 7.5679 1.7348
3/17/2021 1:00:00 PM 7.5622 1.7506
3/17/2021 1:15:00 PM 7.5788 1.7258
3/17/2021 1:30:00 PM 7.6168 1.746
3/17/2021 1:45:00 PM 7.6212 1.7346
3/17/2021 2:00:00 PM 7.5996 1.7211
3/17/2021 2:15:00 PM 7.5515 1.7885
3/17/2021 2:30:00 PM 7.5258 1.7673
3/17/2021 2:45:00 PM 7.5077 1.7047
3/17/2021 3:00:00 PM 7.497 1.629
3/17/2021 3:15:00 PM 7.4856 1.6325
3/17/2021 3:30:00 PM 7.48 1.655
3/17/2021 3:45:00 PM 7.4741 1.6298
3/17/2021 4:00:00 PM 7.469 1.6209
3/17/2021 4:15:00 PM 7.4638 1.6463
3/17/2021 4:30:00 PM 7.4619 1.6525
3/17/2021 4:45:00 PM 7.4609 1.6516
3/17/2021 5:00:00 PM 7.4553 1.6492
3/17/2021 5:15:00 PM 7.4564 1.6733
3/17/2021 5:30:00 PM 7.4518 1.9451
3/17/2021 5:45:00 PM 7.4466 2.1
3/17/2021 6:00:00 PM 7.4482 1.784
3/17/2021 6:15:00 PM 7.4466 1.7301
3/17/2021 6:30:00 PM 7.4442 1.6488
3/17/2021 6:45:00 PM 7.4432 1.615
3/17/2021 7:00:00 PM 7.4427 1.6227
3/17/2021 7:15:00 PM 7.4434 1.6352
3/17/2021 7:30:00 PM 7.4429 1.7478
3/17/2021 7:45:00 PM 7.4418 1.9126
3/17/2021 8:00:00 PM 7.439 1.8083
3/17/2021 8:15:00 PM 7.4388 1.7544
3/17/2021 8:30:00 PM 7.4355 1.7347
3/17/2021 8:45:00 PM 7.4354 1.7001
3/17/2021 9:00:00 PM 7.4326 1.7457
3/17/2021 9:15:00 PM 7.4309 1.7289
3/17/2021 9:30:00 PM 7.4294 1.7007
3/17/2021 9:45:00 PM 7.4264 1.7416
3/17/2021 10:00:00 PM 7.4227 1.8273
3/17/2021 10:15:00 PM 7.416 1.7615
3/17/2021 10:30:00 PM 7.408 1.8414
3/17/2021 10:45:00 PM 7.4013 1.7811
3/17/2021 11:00:00 PM 7.4007 1.7391
3/17/2021 11:15:00 PM 7.3961 1.7409
3/17/2021 11:30:00 PM 7.393 1.7586
3/17/2021 11:45:00 PM 7.3934 1.7001
3/18/2021 12:00:00 AM 7.3916 1.6969
3/18/2021 12:15:00 AM 7.3914 1.6965
3/18/2021 12:30:00 AM 7.3896 1.6957
3/18/2021 12:45:00 AM 7.3894 1.6698
3/18/2021 1:00:00 AM 7.3861 1.6818
3/18/2021 1:15:00 AM 7.3794 1.7149
3/18/2021 1:30:00 AM 7.374 1.7472
3/18/2021 1:45:00 AM 7.3767 1.7863
3/18/2021 2:00:00 AM 7.375 1.7307
3/18/2021 2:15:00 AM 7.3719 1.732
3/18/2021 2:30:00 AM 7.372 1.7582
3/18/2021 2:45:00 AM 7.3724 1.7001
3/18/2021 3:00:00 AM 7.3669 1.7278
3/18/2021 3:15:00 AM 7.3675 1.7538
3/18/2021 3:30:00 AM 7.3651 1.709
3/18/2021 3:45:00 AM 7.3626 1.6813
3/18/2021 4:00:00 AM 7.3593 1.6464
3/18/2021 4:15:00 AM 7.3567 1.7119
3/18/2021 4:30:00 AM 7.3575 1.6834
3/18/2021 4:45:00 AM 7.3479 1.7508
3/18/2021 5:00:00 AM 7.3432 1.7552
3/18/2021 5:15:00 AM 7.3568 1.6472
3/18/2021 5:30:00 AM 7.3576 1.7591
3/18/2021 5:45:00 AM 7.3584 1.8
3/18/2021 6:00:00 AM 7.3531 1.8604
3/18/2021 6:15:00 AM 7.3573 1.8565
3/18/2021 6:30:00 AM 7.3547 1.8251
3/18/2021 6:45:00 AM 7.3508 1.7471
3/18/2021 7:00:00 AM 7.349 1.7414
3/18/2021 7:15:00 AM 7.3479 1.7535
3/18/2021 7:30:00 AM 7.3448 1.742
3/18/2021 7:45:00 AM 7.3389 1.739
3/18/2021 8:00:00 AM 7.3377 1.7434
3/18/2021 8:15:00 AM 7.3367 1.8003
3/18/2021 8:30:00 AM 7.3317 1.8164
3/18/2021 8:45:00 AM 7.3262 1.7999
3/18/2021 9:00:00 AM 7.3284 1.7266
3/18/2021 9:15:00 AM 7.328 1.7492
3/18/2021 9:30:00 AM 7.3244 1.7634
3/18/2021 9:45:00 AM 7.3232 1.8329
3/18/2021 10:00:00 AM 7.3189 1.7439
3/18/2021 10:15:00 AM 7.3188 1.7342
3/18/2021 10:30:00 AM 7.3183 1.7791
3/18/2021 10:45:00 AM 7.3263 1.8537
3/18/2021 11:00:00 AM 7.3683 1.8206
3/18/2021 11:15:00 AM 7.341 1.9106
3/18/2021 11:30:00 AM 7.3235 2.0732
3/18/2021 11:45:00 AM 7.3234 2.2
3/18/2021 12:00:00 PM 7.3157 2.86
3/18/2021 12:15:00 PM 7.3099 3.3053
3/18/2021 12:30:00 PM 7.3092 3.6536
3/18/2021 12:45:00 PM 7.3046 5.0649
3/18/2021 1:00:00 PM 7.2958 7.6819
3/18/2021 1:15:00 PM 7.2879 10.4319
3/18/2021 1:30:00 PM 7.2798 12.9967
3/18/2021 1:45:00 PM 7.2724 15.8866
3/18/2021 2:00:00 PM 7.2675 18.7661
3/18/2021 2:15:00 PM 7.2693 364.9296
3/18/2021 2:30:00 PM 7.2881 628.3304
3/18/2021 2:45:00 PM 7.3539 628.3174
3/18/2021 3:00:00 PM 7.4477 628.3486
3/18/2021 3:15:00 PM 7.5609 628.3328
3/18/2021 3:30:00 PM 7.6046 628.3536
3/18/2021 3:45:00 PM 7.6039 628.3574
3/18/2021 4:00:00 PM 7.617 628.3585
3/18/2021 4:15:00 PM 7.6068 382.805
3/18/2021 4:30:00 PM 7.6096 19.7614
3/18/2021 4:45:00 PM 7.6304 18.2618
3/18/2021 5:00:00 PM 7.6492 16.7949
3/18/2021 5:15:00 PM 7.6709 15.2016
3/18/2021 5:30:00 PM 7.6562 13.7886
3/18/2021 5:45:00 PM 7.5656 13.2
3/18/2021 6:00:00 PM 7.3891 11.7603
3/18/2021 6:15:00 PM 7.4463 10.7506
3/18/2021 6:30:00 PM 7.5275 9.9759
3/18/2021 6:45:00 PM 7.5825 9.3611
3/18/2021 7:00:00 PM 7.6167 9.0287
3/18/2021 7:15:00 PM 7.6345 8.6665
3/18/2021 7:30:00 PM 7.6469 8.5555
3/18/2021 7:45:00 PM 7.6423 8.6796
3/18/2021 8:00:00 PM 7.5917 8.8678
3/18/2021 8:15:00 PM 7.3742 9.3001
3/18/2021 8:30:00 PM 7.3489 9.6828
3/18/2021 8:45:00 PM 7.378 9.8999
3/18/2021 9:00:00 PM 7.5077 10.3937
3/18/2021 9:15:00 PM 7.5584 10.4317
3/18/2021 9:30:00 PM 7.5858 10.4604
3/18/2021 9:45:00 PM 7.615 10.3496
3/18/2021 10:00:00 PM 7.4532 10.2789
3/18/2021 10:15:00 PM 7.2885 10.0353
3/18/2021 10:30:00 PM 7.3162 9.812
3/18/2021 10:45:00 PM 7.4111 9.5078
3/18/2021 11:00:00 PM 7.504 9.2651
3/18/2021 11:15:00 PM 7.5606 9.0474
3/18/2021 11:30:00 PM 7.6013 8.6763
3/18/2021 11:45:00 PM 7.6034 8.5999
3/19/2021 12:00:00 AM 7.3538 8.1823
3/19/2021 12:15:00 AM 7.2757 7.9641
3/19/2021 12:30:00 AM 7.3045 7.7042
3/19/2021 12:45:00 AM 7.3419 7.4666
3/19/2021 1:00:00 AM 7.3602 7.2538
3/19/2021 1:15:00 AM 7.3692 7.0471
3/19/2021 1:30:00 AM 7.366 6.8804
3/19/2021 1:45:00 AM 7.3785 6.7181
3/19/2021 2:00:00 AM 7.3792 6.5422
3/19/2021 2:15:00 AM 7.3727 6.4004
3/19/2021 2:30:00 AM 7.3761 6.3416
3/19/2021 2:45:00 AM 7.3808 6.2998
3/19/2021 3:00:00 AM 7.358 5.9583
3/19/2021 3:15:00 AM 7.3596 5.7421
3/19/2021 3:30:00 AM 7.365 5.5738
3/19/2021 3:45:00 AM 7.3696 5.4295
3/19/2021 4:00:00 AM 7.364 5.3281
3/19/2021 4:15:00 AM 7.3703 5.2424
3/19/2021 4:30:00 AM 7.3619 5.0128
3/19/2021 4:45:00 AM 7.3615 4.9246
3/19/2021 5:00:00 AM 7.3652 4.7751
3/19/2021 5:15:00 AM 7.3714 4.636
3/19/2021 5:30:00 AM 7.3584 4.55
3/19/2021 5:45:00 AM 7.3556 4.4996
3/19/2021 6:00:00 AM 7.3534 4.3258
3/19/2021 6:15:00 AM 7.3576 4.2176
3/19/2021 6:30:00 AM 7.3515 4.1441
3/19/2021 6:45:00 AM 7.3434 4.0325
3/19/2021 7:00:00 AM 7.3423 3.9945
3/19/2021 7:15:00 AM 7.3408 3.9366
3/19/2021 7:30:00 AM 7.3378 3.9412
3/19/2021 7:45:00 AM 7.3372 3.9024
3/19/2021 8:00:00 AM 7.3414 3.8372
3/19/2021 8:15:00 AM 7.3438 4.0319
3/19/2021 8:30:00 AM 7.3448 4.0448
3/19/2021 8:45:00 AM 7.343 4
3/19/2021 9:00:00 AM 7.341 3.982
3/19/2021 9:15:00 AM 7.3381 3.9445
3/19/2021 9:30:00 AM 7.3414 3.8402
3/19/2021 9:45:00 AM 7.3605 3.8535
3/19/2021 10:00:00 AM 7.4441 3.826
3/19/2021 10:15:00 AM 7.5683 3.8088
3/19/2021 10:30:00 AM 7.3868 3.742
3/19/2021 10:45:00 AM 7.2922 3.7639
3/19/2021 11:00:00 AM 7.2789 3.8361
3/19/2021 11:15:00 AM 7.2736 3.8313
3/19/2021 11:30:00 AM 7.267 3.834
3/19/2021 11:45:00 AM 7.2674 3.8998
3/19/2021 12:00:00 PM 7.2607 3.8485
3/19/2021 12:15:00 PM 7.2582 3.7386
3/19/2021 12:30:00 PM 7.2516 3.7367
3/19/2021 12:45:00 PM 7.2496 3.8235
3/19/2021 1:00:00 PM 7.2464 3.9395
3/19/2021 1:15:00 PM 7.242 3.7672
3/19/2021 1:30:00 PM 7.242 3.7472
3/19/2021 1:45:00 PM 7.2436 3.7071
3/19/2021 2:00:00 PM 7.2563 3.5933
3/19/2021 2:15:00 PM 7.2779 3.5017
3/19/2021 2:30:00 PM 7.3571 3.4469
3/19/2021 2:45:00 PM 7.4757 3.382
3/19/2021 3:00:00 PM 7.5767 3.3518
3/19/2021 3:15:00 PM 7.6271 4.1162
3/19/2021 3:30:00 PM 7.6327 3.5477
3/19/2021 3:45:00 PM 7.6445 3.4316
3/19/2021 4:00:00 PM 7.6637 3.3037
3/19/2021 4:15:00 PM 7.6874 3.233
3/19/2021 4:30:00 PM 7.6844 3.2347
3/19/2021 4:45:00 PM 7.6909 3.2459
3/19/2021 5:00:00 PM 7.6922 3.2131
3/19/2021 5:15:00 PM 7.6827 3.21
3/19/2021 5:30:00 PM 7.6927 3.1438
3/19/2021 5:45:00 PM 7.6944 3.1998
3/19/2021 6:00:00 PM 7.6939 3.1412
3/19/2021 6:15:00 PM 7.6981 3.0927
3/19/2021 6:30:00 PM 7.5765 3.0517
3/19/2021 6:45:00 PM 7.3945 3.0419
3/19/2021 7:00:00 PM 7.4251 3.0491
3/19/2021 7:15:00 PM 7.5167 2.9987
3/19/2021 7:30:00 PM 7.5969 2.9456
3/19/2021 7:45:00 PM 7.591 2.9611
3/19/2021 8:00:00 PM 7.5783 2.9252
3/19/2021 8:15:00 PM 7.5624 2.8633
3/19/2021 8:30:00 PM 7.5491 2.8938
3/19/2021 8:45:00 PM 7.5474 2.8001
3/19/2021 9:00:00 PM 7.541 2.8702
3/19/2021 9:15:00 PM 7.5349 2.8816
3/19/2021 9:30:00 PM 7.5172 2.8636
3/19/2021 9:45:00 PM 7.5109 2.8279
3/19/2021 10:00:00 PM 7.5053 2.922
3/19/2021 10:15:00 PM 7.5122 2.895
3/19/2021 10:30:00 PM 7.5096 2.9276
3/19/2021 10:45:00 PM 7.5095 2.9493
3/19/2021 11:00:00 PM 7.4928 2.9468
3/19/2021 11:15:00 PM 7.4822 2.9542
3/19/2021 11:30:00 PM 7.4824 3.0218
3/19/2021 11:45:00 PM 7.4886 3
3/20/2021 12:00:00 AM 7.474 3.0467
3/20/2021 12:15:00 AM 7.4617 3.0347
3/20/2021 12:30:00 AM 7.4561 3.0395
3/20/2021 12:45:00 AM 7.4574 3.033
3/20/2021 1:00:00 AM 7.4565 3.0448
3/20/2021 1:15:00 AM 7.4499 3.0404
3/20/2021 1:30:00 AM 7.453 3.3081
3/20/2021 1:45:00 AM 7.4388 3.2753
3/20/2021 2:00:00 AM 7.4347 3.1155
3/20/2021 2:15:00 AM 7.4348 3.0902
3/20/2021 2:30:00 AM 7.4316 3.1315
3/20/2021 2:45:00 AM 7.4256 3.0999
3/20/2021 3:00:00 AM 7.4256 2.9577
3/20/2021 3:15:00 AM 7.4153 2.9243
3/20/2021 3:30:00 AM 7.4008 2.9566
3/20/2021 3:45:00 AM 7.397 2.8405
3/20/2021 4:00:00 AM 7.3923 2.9048
3/20/2021 4:15:00 AM 7.3894 2.9463
3/20/2021 4:30:00 AM 7.402 2.9311
3/20/2021 4:45:00 AM 7.3522 2.9472
3/20/2021 5:00:00 AM 7.2925 2.9497
3/20/2021 5:15:00 AM 7.2725 2.9324
3/20/2021 5:30:00 AM 7.2628 2.9252
3/20/2021 5:45:00 AM 7.2604 2.8
3/20/2021 6:00:00 AM 7.2203 2.8584
3/20/2021 6:15:00 AM 7.2435 2.8201
3/20/2021 6:30:00 AM 7.2477 2.8454
3/20/2021 6:45:00 AM 7.2503 2.8576
3/20/2021 7:00:00 AM 7.2462 2.8581
3/20/2021 7:15:00 AM 7.2466 2.8451
3/20/2021 7:30:00 AM 7.2435 2.8419
3/20/2021 7:45:00 AM 7.2404 2.796
3/20/2021 8:00:00 AM 7.2366 2.7409
3/20/2021 8:15:00 AM 7.2339 2.7329
3/20/2021 8:30:00 AM 7.233 2.653
3/20/2021 8:45:00 AM 7.231 2.6999
3/20/2021 9:00:00 AM 7.2329 4.2459
3/20/2021 9:15:00 AM 7.2328 3.5882
3/20/2021 9:30:00 AM 7.2282 2.8206
3/20/2021 9:45:00 AM 7.2245 2.6422
3/20/2021 10:00:00 AM 7.2224 2.5434
3/20/2021 10:15:00 AM 7.2197 2.5527
3/20/2021 10:30:00 AM 7.216 2.5664
3/20/2021 10:45:00 AM 7.2091 2.522
3/20/2021 11:00:00 AM 7.2071 2.4968
3/20/2021 11:15:00 AM 7.2105 2.4359
3/20/2021 11:30:00 AM 7.2176 2.4303
3/20/2021 11:45:00 AM 7.21 2.4
3/20/2021 12:00:00 PM 7.2126 2.4648
3/20/2021 12:15:00 PM 7.2104 2.4356
3/20/2021 12:30:00 PM 7.2085 2.4038
3/20/2021 12:45:00 PM 7.2058 2.3453
3/20/2021 1:00:00 PM 7.2031 2.4186
3/20/2021 1:15:00 PM 7.2005 2.6037
3/20/2021 1:30:00 PM 7.1971 2.6021
3/20/2021 1:45:00 PM 7.1924 2.5586
3/20/2021 2:00:00 PM 7.1889 2.7714
3/20/2021 2:15:00 PM 7.1886 2.8533
3/20/2021 2:30:00 PM 7.1848 2.7544
3/20/2021 2:45:00 PM 7.1828 2.5955
3/20/2021 3:00:00 PM 7.1808 2.6029
3/20/2021 3:15:00 PM 7.1757 2.4832
3/20/2021 3:30:00 PM 7.1779 2.4304
3/20/2021 3:45:00 PM 7.1761 2.336
3/20/2021 4:00:00 PM 7.1789 2.3341
3/20/2021 4:15:00 PM 7.1786 2.2732
3/20/2021 4:30:00 PM 7.1791 2.3035
3/20/2021 4:45:00 PM 7.1786 2.3496
3/20/2021 5:00:00 PM 7.1789 2.3398
3/20/2021 5:15:00 PM 7.1772 2.3096
3/20/2021 5:30:00 PM 7.1743 2.2314
3/20/2021 5:45:00 PM 7.1736 2.2998
3/20/2021 6:00:00 PM 7.1745 2.2469
3/20/2021 6:15:00 PM 7.1746 2.268
3/20/2021 6:30:00 PM 7.1747 2.4913
3/20/2021 6:45:00 PM 7.1741 2.3572
3/20/2021 7:00:00 PM 7.1737 2.2379
3/20/2021 7:15:00 PM 7.1707 2.2457
3/20/2021 7:30:00 PM 7.1699 2.1698
3/20/2021 7:45:00 PM 7.1693 2.1691
3/20/2021 8:00:00 PM 7.1659 2.3031
3/20/2021 8:15:00 PM 7.1631 2.4584
3/20/2021 8:30:00 PM 7.1522 2.4994
3/20/2021 8:45:00 PM 7.1484 2.4999
3/20/2021 9:00:00 PM 7.1418 2.3684
3/20/2021 9:15:00 PM 7.1407 2.3395
3/20/2021 9:30:00 PM 7.1404 2.3443
3/20/2021 9:45:00 PM 7.1352 2.3545
3/20/2021 10:00:00 PM 7.1338 2.3241
3/20/2021 10:15:00 PM 7.1366 2.2345
3/20/2021 10:30:00 PM 7.1358 2.2482
3/20/2021 10:45:00 PM 7.1374 2.2481
3/20/2021 11:00:00 PM 7.1401 2.2414
3/20/2021 11:15:00 PM 7.1366 2.2432
3/20/2021 11:30:00 PM 7.1361 2.2396
3/20/2021 11:45:00 PM 7.1344 2.3
3/21/2021 12:00:00 AM 7.1347 2.2516
3/21/2021 12:15:00 AM 7.1305 2.3249
3/21/2021 12:30:00 AM 7.1328 2.2345
3/21/2021 12:45:00 AM 7.1317 2.2525
3/21/2021 1:00:00 AM 7.1338 2.2471
3/21/2021 1:15:00 AM 7.1305 2.2354
3/21/2021 1:30:00 AM 7.1307 2.2385
3/21/2021 1:45:00 AM 7.1326 2.2368
3/21/2021 2:00:00 AM 7.1297 2.3095
3/21/2021 2:15:00 AM 7.1272 2.3337
3/21/2021 2:30:00 AM 7.1265 2.3298
3/21/2021 2:45:00 AM 7.1274 2.3999
3/21/2021 3:00:00 AM 7.1235 2.3259
3/21/2021 3:15:00 AM 7.1222 2.2764
3/21/2021 3:30:00 AM 7.1229 2.2393
3/21/2021 3:45:00 AM 7.1201 2.2754
3/21/2021 4:00:00 AM 7.1212 2.3385
3/21/2021 4:15:00 AM 7.1197 2.2974
3/21/2021 4:30:00 AM 7.1162 2.3322
3/21/2021 4:45:00 AM 7.1268 2.3549
3/21/2021 5:00:00 AM 7.1663 2.3286
3/21/2021 5:15:00 AM 7.2323 2.2782
3/21/2021 5:30:00 AM 7.3483 2.3216
3/21/2021 5:45:00 AM 7.3556 2.2999
3/21/2021 6:00:00 AM 7.1429 2.2617
3/21/2021 6:15:00 AM 7.1295 2.2439
3/21/2021 6:30:00 AM 7.1204 2.2163
3/21/2021 6:45:00 AM 7.1175 2.2264
3/21/2021 7:00:00 AM 7.1167 2.2294
3/21/2021 7:15:00 AM 7.1176 2.2395
3/21/2021 7:30:00 AM 7.1156 2.2471
3/21/2021 7:45:00 AM 7.1201 2.1739
3/21/2021 8:00:00 AM 7.1216 2.1589
3/21/2021 8:15:00 AM 7.1197 2.1197
3/21/2021 8:30:00 AM 7.1381 2.3974
3/21/2021 8:45:00 AM 7.1498 2.7
3/21/2021 9:00:00 AM 7.1999 3.2411
3/21/2021 9:15:00 AM 7.3137 2.216
3/21/2021 9:30:00 AM 7.355 2.0665
3/21/2021 9:45:00 AM 7.3639 2.0306
3/21/2021 10:00:00 AM 7.4086 2.0571
3/21/2021 10:15:00 AM 7.3861 2.0502
3/21/2021 10:30:00 AM 7.1723 2.0154
3/21/2021 10:45:00 AM 7.1153 1.9843
3/21/2021 11:00:00 AM 7.1031 1.952
3/21/2021 11:15:00 AM 7.0988 1.9297
3/21/2021 11:30:00 AM 7.0978 1.9239
3/21/2021 11:45:00 AM 7.0994 1.9998
3/21/2021 12:00:00 PM 7.0976 1.9533
3/21/2021 12:15:00 PM 7.0997 1.9344
3/21/2021 12:30:00 PM 7.1043 2.0732
3/21/2021 12:45:00 PM 7.0996 2.0131
3/21/2021 1:00:00 PM 7.0967 1.998
3/21/2021 1:15:00 PM 7.095 1.9402
3/21/2021 1:30:00 PM 7.0912 1.9351
3/21/2021 1:45:00 PM 7.0791 1.945
3/21/2021 2:00:00 PM 7.0793 1.9332
3/21/2021 2:15:00 PM 7.0821 1.9126
3/21/2021 2:30:00 PM 7.0836 1.876
3/21/2021 2:45:00 PM 7.0867 1.8376
3/21/2021 3:00:00 PM 7.0847 1.8196
3/21/2021 3:15:00 PM 7.087 1.8308
3/21/2021 3:30:00 PM 7.09 1.8375
3/21/2021 3:45:00 PM 7.0918 1.8252
3/21/2021 4:00:00 PM 7.0927 1.8349
3/21/2021 4:15:00 PM 7.0967 1.8685
3/21/2021 4:30:00 PM 7.0986 1.8057
3/21/2021 4:45:00 PM 7.0992 1.7561
3/21/2021 5:00:00 PM 7.1019 1.741
3/21/2021 5:15:00 PM 7.1017 1.7795
3/21/2021 5:30:00 PM 7.106 1.7584
3/21/2021 5:45:00 PM 7.1078 1.8001
3/21/2021 6:00:00 PM 7.1075 1.7479
3/21/2021 6:15:00 PM 7.1187 1.7507
3/21/2021 6:30:00 PM 7.1541 1.7461
3/21/2021 6:45:00 PM 7.2431 1.6755
3/21/2021 7:00:00 PM 7.387 1.6988
3/21/2021 7:15:00 PM 7.4559 1.6631
3/21/2021 7:30:00 PM 7.4997 1.6685
3/21/2021 7:45:00 PM 7.4025 1.65
3/21/2021 8:00:00 PM 7.2348 1.6562
3/21/2021 8:15:00 PM 7.1434 1.7103
3/21/2021 8:30:00 PM 7.1124 1.6904
3/21/2021 8:45:00 PM 7.1134 1.7
3/21/2021 9:00:00 PM 7.1041 1.7241
3/21/2021 9:15:00 PM 7.1034 1.7439
3/21/2021 9:30:00 PM 7.1057 1.7357
3/21/2021 9:45:00 PM 7.1068 1.7565
3/21/2021 10:00:00 PM 7.1066 1.77
3/21/2021 10:15:00 PM 7.1106 1.693
3/21/2021 10:30:00 PM 7.1107 1.675
3/21/2021 10:45:00 PM 7.1114 1.7346
3/21/2021 11:00:00 PM 7.1113 1.8053
3/21/2021 11:15:00 PM 7.1115 1.7451
3/21/2021 11:30:00 PM 7.1111 1.7466
3/21/2021 11:45:00 PM 7.112 1.6998
3/22/2021 12:00:00 AM 7.1115 1.7458
3/22/2021 12:15:00 AM 7.1136 1.7502
3/22/2021 12:30:00 AM 7.1114 1.7472
3/22/2021 12:45:00 AM 7.1111 1.7383
3/22/2021 1:00:00 AM 7.1109 1.7243
3/22/2021 1:15:00 AM 7.1136 1.7046
3/22/2021 1:30:00 AM 7.1141 1.7428
3/22/2021 1:45:00 AM 7.1117 1.7763
3/22/2021 2:00:00 AM 7.112 1.7477
3/22/2021 2:15:00 AM 7.1155 1.8072
3/22/2021 2:30:00 AM 7.1158 1.7464
3/22/2021 2:45:00 AM 7.1148 1.7999
3/22/2021 3:00:00 AM 7.1149 1.7443
3/22/2021 3:15:00 AM 7.1144 1.701
3/22/2021 3:30:00 AM 7.1159 1.7499
3/22/2021 3:45:00 AM 7.1159 1.7283
3/22/2021 4:00:00 AM 7.069 2.0795
3/22/2021 4:15:00 AM 7.0981 1.9095
3/22/2021 4:30:00 AM 7.1118 1.7476
3/22/2021 4:45:00 AM 7.116 1.6503
3/22/2021 5:00:00 AM 7.1169 1.6958
3/22/2021 5:15:00 AM 7.1188 1.6491
3/22/2021 5:30:00 AM 7.1194 1.6306
3/22/2021 5:45:00 AM 7.1218 1.6001
3/22/2021 6:00:00 AM 7.1214 1.6247
3/22/2021 6:15:00 AM 7.1287 1.6525
3/22/2021 6:30:00 AM 7.1488 1.6064
3/22/2021 6:45:00 AM 7.1982 1.4682
3/22/2021 7:00:00 AM 7.2769 1.5337
3/22/2021 7:15:00 AM 7.3355 1.5302
3/22/2021 7:30:00 AM 7.4388 1.5228
3/22/2021 7:45:00 AM 7.4985 1.5365
3/22/2021 8:00:00 AM 7.2501 1.564
3/22/2021 8:15:00 AM 7.1374 1.5587
3/22/2021 8:30:00 AM 7.1138 1.5606
3/22/2021 8:45:00 AM 7.1134 1.6
3/22/2021 9:00:00 AM 7.1116 1.4851
3/22/2021 9:15:00 AM 7.1141 1.5713
3/22/2021 9:30:00 AM 7.1199 1.7705
3/22/2021 9:45:00 AM 7.1165 2.4477
3/22/2021 10:00:00 AM 7.1176 1.814
3/22/2021 10:15:00 AM 7.1205 1.5619
3/22/2021 10:30:00 AM 7.1211 1.619
3/22/2021 10:45:00 AM 7.1223 1.6409
3/22/2021 11:00:00 AM 7.1213 1.6853
3/22/2021 11:15:00 AM 7.1235 1.5728
3/22/2021 11:30:00 AM 7.1241 1.506
3/22/2021 11:45:00 AM 7.1232 1.4999
3/22/2021 12:00:00 PM 7.1257 1.5761
3/22/2021 12:15:00 PM 7.1254 1.573
3/22/2021 12:30:00 PM 7.1219 1.5417
3/22/2021 12:45:00 PM 7.1254 1.5122
3/22/2021 1:00:00 PM 7.1258 1.4454
3/22/2021 1:15:00 PM 7.1402 1.4182
3/22/2021 1:30:00 PM 7.1925 1.3545
3/22/2021 1:45:00 PM 7.312 1.32
3/22/2021 2:00:00 PM 7.4352 1.3296
3/22/2021 2:15:00 PM 7.5346 1.3372
3/22/2021 2:30:00 PM 7.6052 1.3505
3/22/2021 2:45:00 PM 7.6378 1.3513
3/22/2021 3:00:00 PM 7.6538 1.3972
3/22/2021 3:15:00 PM 7.6585 1.3781
3/22/2021 3:30:00 PM 7.6602 1.3533
3/22/2021 3:45:00 PM 7.6667 1.3645
3/22/2021 4:00:00 PM 7.6669 1.3586
3/22/2021 4:15:00 PM 7.6694 1.3652
3/22/2021 4:30:00 PM 7.6695 1.4109
3/22/2021 4:45:00 PM 7.6784 1.3523
3/22/2021 5:00:00 PM 7.7906 1.36
3/22/2021 5:15:00 PM 7.8719 1.3362
3/22/2021 5:30:00 PM 7.8443 1.3453
3/22/2021 5:45:00 PM 7.8162 1.3001
3/22/2021 6:00:00 PM 7.6296 1.2935
3/22/2021 6:15:00 PM 7.4422 1.2563
3/22/2021 6:30:00 PM 7.4671 1.27
3/22/2021 6:45:00 PM 7.4676 1.2478
3/22/2021 7:00:00 PM 7.4675 1.2381
3/22/2021 7:15:00 PM 7.4635 1.2583
3/22/2021 7:30:00 PM 7.3907 1.2639
3/22/2021 7:45:00 PM 7.2979 1.2704
3/22/2021 8:00:00 PM 7.2353 1.3824
3/22/2021 8:15:00 PM 7.2033 1.5281
3/22/2021 8:30:00 PM 7.1772 1.4452
3/22/2021 8:45:00 PM 7.1764 1.5003
3/22/2021 9:00:00 PM 7.1834 1.4528
3/22/2021 9:15:00 PM 7.1904 1.4581
3/22/2021 9:30:00 PM 7.194 1.4374
3/22/2021 9:45:00 PM 7.1987 1.3471
3/22/2021 10:00:00 PM 7.2025 1.3619
3/22/2021 10:15:00 PM 7.2052 1.4078
3/22/2021 10:30:00 PM 7.2029 1.4379
3/22/2021 10:45:00 PM 7.2028 1.419
3/22/2021 11:00:00 PM 7.2047 1.4333
3/22/2021 11:15:00 PM 7.1997 1.3743
3/22/2021 11:30:00 PM 7.1719 1.4072
3/22/2021 11:45:00 PM 7.1694 1.3999
3/23/2021 12:00:00 AM 7.1643 1.5904
3/23/2021 12:15:00 AM 7.1658 1.5504
3/23/2021 12:30:00 AM 7.1691 1.506
3/23/2021 12:45:00 AM 7.169 1.4831
3/23/2021 1:00:00 AM 7.1698 1.442
3/23/2021 1:15:00 AM 7.1685 1.5141
3/23/2021 1:30:00 AM 7.1681 1.4955
3/23/2021 1:45:00 AM 7.1672 1.4757
3/23/2021 2:00:00 AM 7.1647 1.5391
3/23/2021 2:15:00 AM 7.1677 1.4918
3/23/2021 2:30:00 AM 7.1669 1.4296
3/23/2021 2:45:00 AM 7.1624 1.5
3/23/2021 3:00:00 AM 7.1729 1.4491
3/23/2021 3:15:00 AM 7.18 1.4488
3/23/2021 3:30:00 AM 7.1846 1.4257
3/23/2021 3:45:00 AM 7.1887 1.424
3/23/2021 4:00:00 AM 7.1927 1.4986
3/23/2021 4:15:00 AM 7.1935 1.5424
3/23/2021 4:30:00 AM 7.193 1.541
3/23/2021 4:45:00 AM 7.1906 1.5385
3/23/2021 5:00:00 AM 7.1894 1.5442
3/23/2021 5:15:00 AM 7.1888 1.5007
3/23/2021 5:30:00 AM 7.1889 1.5091
3/23/2021 5:45:00 AM 7.182 1.5001
3/23/2021 6:00:00 AM 7.1375 2.5394
3/23/2021 6:15:00 AM 7.167 1.6098
3/23/2021 6:30:00 AM 7.1629 1.4356
3/23/2021 6:45:00 AM 7.1541 1.4434
3/23/2021 7:00:00 AM 7.1548 1.4505
3/23/2021 7:15:00 AM 7.159 1.4497
3/23/2021 7:30:00 AM 7.1592 1.4276
3/23/2021 7:45:00 AM 7.1599 1.3804
3/23/2021 8:00:00 AM 7.1636 1.3987
3/23/2021 8:15:00 AM 7.1614 1.438
3/23/2021 8:30:00 AM 7.1612 1.5226
3/23/2021 8:45:00 AM 7.161 1.4
3/23/2021 9:00:00 AM 7.1577 1.4773
3/23/2021 9:15:00 AM 7.1627 1.4133
3/23/2021 9:30:00 AM 7.1696 1.3335
3/23/2021 9:45:00 AM 7.1741 1.3545
3/23/2021 10:00:00 AM 7.1793 1.3586
3/23/2021 10:15:00 AM 7.1838 1.2745
3/23/2021 10:30:00 AM 7.1822 1.271
3/23/2021 10:45:00 AM 7.185 1.2553
3/23/2021 11:00:00 AM 7.1795 1.2496
3/23/2021 11:15:00 AM 7.18 1.2262
3/23/2021 11:30:00 AM 7.1733 1.1967
3/23/2021 11:45:00 AM 7.1596 1.2
3/23/2021 12:00:00 PM 7.1428 1.3296
3/23/2021 12:15:00 PM 7.1402 1.5412
3/23/2021 12:30:00 PM 7.1394 1.4717
3/23/2021 12:45:00 PM 7.1442 1.4263
3/23/2021 1:00:00 PM 7.1539 1.4499
3/23/2021 1:15:00 PM 7.165 1.4357
3/23/2021 1:30:00 PM 7.1638 1.5525
3/23/2021 1:45:00 PM 7.1487 1.4667
3/23/2021 2:00:00 PM 7.1447 1.3896
3/23/2021 2:15:00 PM 7.145 1.2982
3/23/2021 2:30:00 PM 7.146 1.2338
3/23/2021 2:45:00 PM 7.1486 1.2432
3/23/2021 3:00:00 PM 7.1545 1.2446
3/23/2021 3:15:00 PM 7.1667 1.2656
3/23/2021 3:30:00 PM 7.1827 1.2306
3/23/2021 3:45:00 PM 7.1849 1.2347
3/23/2021 4:00:00 PM 7.1696 1.2396
3/23/2021 4:15:00 PM 7.1641 1.2668
3/23/2021 4:30:00 PM 7.162 1.2502
3/23/2021 4:45:00 PM 7.1639 1.237
3/23/2021 5:00:00 PM 7.1659 1.1715
3/23/2021 5:15:00 PM 7.1735 1.2023
3/23/2021 5:30:00 PM 7.1864 1.1495
3/23/2021 5:45:00 PM 7.196 1.1999
3/23/2021 6:00:00 PM 7.1764 1.1802
3/23/2021 6:15:00 PM 7.1728 1.1781
3/23/2021 6:30:00 PM 7.1714 1.1504
3/23/2021 6:45:00 PM 7.1702 1.1714
3/23/2021 7:00:00 PM 7.1698 1.1822
3/23/2021 7:15:00 PM 7.1775 1.212
3/23/2021 7:30:00 PM 7.1869 1.4093
3/23/2021 7:45:00 PM 7.1794 1.4985
3/23/2021 8:00:00 PM 7.1637 1.4301
3/23/2021 8:15:00 PM 7.1575 1.3739
3/23/2021 8:30:00 PM 7.1524 1.4146
3/23/2021 8:45:00 PM 7.1512 1.4001
3/23/2021 9:00:00 PM 7.1494 1.4257
3/23/2021 9:15:00 PM 7.1554 1.3352
3/23/2021 9:30:00 PM 7.1636 1.3244
3/23/2021 9:45:00 PM 7.1578 1.3373
3/23/2021 10:00:00 PM 7.1491 1.3473
3/23/2021 10:15:00 PM 7.1457 1.3314
3/23/2021 10:30:00 PM 7.1397 1.3376
3/23/2021 10:45:00 PM 7.136 1.3359
3/23/2021 11:00:00 PM 7.1375 1.3337
3/23/2021 11:15:00 PM 7.1438 1.4289
3/23/2021 11:30:00 PM 7.1497 1.6657
3/23/2021 11:45:00 PM 7.1554 2.2
3/24/2021 12:00:00 AM 7.1416 1.5871
3/24/2021 12:15:00 AM 7.1335 1.6718
3/24/2021 12:30:00 AM 7.1337 1.6947
3/24/2021 12:45:00 AM 7.1364 1.5329
3/24/2021 1:00:00 AM 7.1356 1.4686
3/24/2021 1:15:00 AM 7.1392 1.544
3/24/2021 1:30:00 AM 7.1464 1.5221
3/24/2021 1:45:00 AM 7.1516 1.4714
3/24/2021 2:00:00 AM 7.1401 1.547
3/24/2021 2:15:00 AM 7.1394 1.4241
3/24/2021 2:30:00 AM 7.1355 1.4479
3/24/2021 2:45:00 AM 7.1358 1.4001
3/24/2021 3:00:00 AM 7.1344 1.4009
3/24/2021 3:15:00 AM 7.1385 1.4467
3/24/2021 3:30:00 AM 7.1458 1.4312
3/24/2021 3:45:00 AM 7.1557 1.4374
3/24/2021 4:00:00 AM 7.145 1.4372
3/24/2021 4:15:00 AM 7.1389 1.4358
3/24/2021 4:30:00 AM 7.1353 1.4564
3/24/2021 4:45:00 AM 7.127 1.5568
3/24/2021 5:00:00 AM 7.0879 1.5809
3/24/2021 5:15:00 AM 7.1221 1.478
3/24/2021 5:30:00 AM 7.1402 1.4577
3/24/2021 5:45:00 AM 7.1498 1.3998
3/24/2021 6:00:00 AM 7.148 1.3332
3/24/2021 6:15:00 AM 7.1387 1.3495
3/24/2021 6:30:00 AM 7.1354 1.3524
3/24/2021 6:45:00 AM 7.1346 1.3483
3/24/2021 7:00:00 AM 7.1333 1.3344
3/24/2021 7:15:00 AM 7.1308 1.3327
3/24/2021 7:30:00 AM 7.131 1.3475
3/24/2021 7:45:00 AM 7.1321 1.3073
3/24/2021 8:00:00 AM 7.1305 1.2552
3/24/2021 8:15:00 AM 7.1291 1.2404
3/24/2021 8:30:00 AM 7.1253 1.2114
3/24/2021 8:45:00 AM 7.1232 1.2999
3/24/2021 9:00:00 AM 7.1287 1.2246
3/24/2021 9:15:00 AM 7.1282 1.2397
3/24/2021 9:30:00 AM 7.1286 1.4742
3/24/2021 9:45:00 AM 7.1283 1.7795
3/24/2021 10:00:00 AM 7.124 2.686
3/24/2021 10:15:00 AM 7.1288 1.4707
3/24/2021 10:30:00 AM 7.1304 1.3428
3/24/2021 10:45:00 AM 7.1319 1.2515
3/24/2021 11:00:00 AM 7.1318 1.2413
3/24/2021 11:15:00 AM 7.1328 1.23
3/24/2021 11:30:00 AM 7.1354 1.2309
3/24/2021 11:45:00 AM 7.1372 1.2996
3/24/2021 12:00:00 PM 7.1394 1.2262
3/24/2021 12:15:00 PM 7.1469 1.2554
3/24/2021 12:30:00 PM 7.162 1.3465
3/24/2021 12:45:00 PM 7.1716 1.3522
3/24/2021 1:00:00 PM 7.1579 1.34
3/24/2021 1:15:00 PM 7.1536 1.3712
3/24/2021 1:30:00 PM 7.1546 1.3563
3/24/2021 1:45:00 PM 7.1546 1.3655
3/24/2021 2:00:00 PM 7.1538 1.3404
3/24/2021 2:15:00 PM 7.1544 1.3343
3/24/2021 2:30:00 PM 7.1557 1.3711
3/24/2021 2:45:00 PM 7.158 1.4265
3/24/2021 3:00:00 PM 7.1591 1.4569
3/24/2021 3:15:00 PM 7.1629 1.5508
3/24/2021 3:30:00 PM 7.1645 1.545
3/24/2021 3:45:00 PM 7.1642 1.6471
3/24/2021 4:00:00 PM 7.1646 1.6569
3/24/2021 4:15:00 PM 7.165 1.7385
3/24/2021 4:30:00 PM 7.1645 1.8243
3/24/2021 4:45:00 PM 7.1631 1.8473
3/24/2021 5:00:00 PM 7.1624 1.8338
3/24/2021 5:15:00 PM 7.1622 1.8801
3/24/2021 5:30:00 PM 7.1595 1.9313
3/24/2021 5:45:00 PM 7.1666 1.9996
3/24/2021 6:00:00 PM 7.163 1.9399
3/24/2021 6:15:00 PM 7.1632 1.9278
3/24/2021 6:30:00 PM 7.1638 1.8903
3/24/2021 6:45:00 PM 7.1633 1.9225
3/24/2021 7:00:00 PM 7.1624 1.8958
3/24/2021 7:15:00 PM 7.1649 1.9433
3/24/2021 7:30:00 PM 7.1705 1.9425
3/24/2021 7:45:00 PM 7.1855 1.9403
3/24/2021 8:00:00 PM 7.1763 1.9129
3/24/2021 8:15:00 PM 7.1596 2.1758
3/24/2021 8:30:00 PM 7.1493 2.1493
3/24/2021 8:45:00 PM 7.1456 2.1999
3/24/2021 9:00:00 PM 7.1372 2.1718
3/24/2021 9:15:00 PM 7.1351 2.2236
3/24/2021 9:30:00 PM 7.1336 2.2448
3/24/2021 9:45:00 PM 7.1306 2.2449
3/24/2021 10:00:00 PM 7.1303 2.2308
3/24/2021 10:15:00 PM 7.1282 2.2505
3/24/2021 10:30:00 PM 7.1271 2.1965
3/24/2021 10:45:00 PM 7.1299 2.1779
3/24/2021 11:00:00 PM 7.1278 2.1606
3/24/2021 11:15:00 PM 7.127 2.2564
3/24/2021 11:30:00 PM 7.1246 2.2298
3/24/2021 11:45:00 PM 7.1274 2.2
3/25/2021 12:00:00 AM 7.1215 2.3056
3/25/2021 12:15:00 AM 7.1179 2.3169
3/25/2021 12:30:00 AM 7.1184 2.3428
3/25/2021 12:45:00 AM 7.1166 2.3274
3/25/2021 1:00:00 AM 7.1153 2.3364
3/25/2021 1:15:00 AM 7.1156 2.4165
3/25/2021 1:30:00 AM 7.1126 2.425
3/25/2021 1:45:00 AM 7.1103 2.4358
3/25/2021 2:00:00 AM 7.107 2.4487
3/25/2021 2:15:00 AM 7.1065 2.4603
3/25/2021 2:30:00 AM 7.1065 2.4713
3/25/2021 2:45:00 AM 7.1036 2.4999
3/25/2021 3:00:00 AM 7.105 2.5526
3/25/2021 3:15:00 AM 7.102 2.5558
3/25/2021 3:30:00 AM 7.1018 2.5448
3/25/2021 3:45:00 AM 7.1017 2.5511
3/25/2021 4:00:00 AM 7.1023 2.4575
3/25/2021 4:15:00 AM 7.1014 2.4357
3/25/2021 4:30:00 AM 7.1009 2.442
3/25/2021 4:45:00 AM 7.0906 2.4984
3/25/2021 5:00:00 AM 7.0791 2.4754
3/25/2021 5:15:00 AM 7.0922 2.3572
3/25/2021 5:30:00 AM 7.0971 2.3354
3/25/2021 5:45:00 AM 7.0938 2.4
3/25/2021 6:00:00 AM 7.0999 2.3966
3/25/2021 6:15:00 AM 7.1138 2.3445
3/25/2021 6:30:00 AM 7.1126 2.2427
3/25/2021 6:45:00 AM 7.103 2.1725
3/25/2021 7:00:00 AM 7.0972 2.2104
3/25/2021 7:15:00 AM 7.0931 2.203
3/25/2021 7:30:00 AM 7.0914 2.1394
3/25/2021 7:45:00 AM 7.0915 2.1071
3/25/2021 8:00:00 AM 7.089 2.0354
3/25/2021 8:15:00 AM 7.0888 2.0532
3/25/2021 8:30:00 AM 7.0917 2.028
3/25/2021 8:45:00 AM 7.0896 1.9999
3/25/2021 9:00:00 AM 7.0918 1.9808
3/25/2021 9:15:00 AM 7.0918 1.9733
3/25/2021 9:30:00 AM 7.0932 1.9637
3/25/2021 9:45:00 AM 7.0932 1.9442
3/25/2021 10:00:00 AM 7.095 1.8825
3/25/2021 10:15:00 AM 7.0983 1.8176
3/25/2021 10:30:00 AM 7.1102 1.8304
3/25/2021 10:45:00 AM 7.1246 1.8601
3/25/2021 11:00:00 AM 7.1102 1.8582
3/25/2021 11:15:00 AM 7.1046 1.8437
3/25/2021 11:30:00 AM 7.1024 1.7839
3/25/2021 11:45:00 AM 7.1078 1.7998
3/25/2021 12:00:00 PM 7.1358 1.7374
3/25/2021 12:15:00 PM 7.1171 1.7309
3/25/2021 12:30:00 PM 7.1076 1.727
3/25/2021 12:45:00 PM 7.1053 1.7187
3/25/2021 1:00:00 PM 7.1066 1.7269
3/25/2021 1:15:00 PM 7.1242 1.731
3/25/2021 1:30:00 PM 7.1168 1.7297
3/25/2021 1:45:00 PM 7.1081 1.7342
3/25/2021 2:00:00 PM 7.1063 1.7336
3/25/2021 2:15:00 PM 7.1126 1.7546
3/25/2021 2:30:00 PM 7.1312 1.8248
3/25/2021 2:45:00 PM 7.119 1.8499
3/25/2021 3:00:00 PM 7.1121 1.8617
3/25/2021 3:15:00 PM 7.1125 1.8263
3/25/2021 3:30:00 PM 7.1283 1.8887
3/25/2021 3:45:00 PM 7.1243 1.9424
3/25/2021 4:00:00 PM 7.1163 1.9938
3/25/2021 4:15:00 PM 7.115 2.0291
3/25/2021 4:30:00 PM 7.1231 1.9404
3/25/2021 4:45:00 PM 7.1317 1.9318
3/25/2021 5:00:00 PM 7.1234 1.9453
3/25/2021 5:15:00 PM 7.1171 1.8664
3/25/2021 5:30:00 PM 7.1194 1.8261
3/25/2021 5:45:00 PM 7.1274 1.8001
3/25/2021 6:00:00 PM 7.1274 1.8966
3/25/2021 6:15:00 PM 7.1182 1.9526
3/25/2021 6:30:00 PM 7.1155 1.8994
3/25/2021 6:45:00 PM 7.1215 1.831
3/25/2021 7:00:00 PM 7.1235 1.7884
3/25/2021 7:15:00 PM 7.1164 1.7209
3/25/2021 7:30:00 PM 7.1102 1.7262
3/25/2021 7:45:00 PM 7.1124 1.7345
3/25/2021 8:00:00 PM 7.1186 1.6864
3/25/2021 8:15:00 PM 7.111 1.7008
3/25/2021 8:30:00 PM 7.1049 1.7596
3/25/2021 8:45:00 PM 7.1036 1.8002
3/25/2021 9:00:00 PM 7.1075 1.7248
3/25/2021 9:15:00 PM 7.1035 1.748
3/25/2021 9:30:00 PM 7.0971 1.7374
3/25/2021 9:45:00 PM 7.0918 1.7466
3/25/2021 10:00:00 PM 7.0973 1.7434
3/25/2021 10:15:00 PM 7.0939 2.0607
3/25/2021 10:30:00 PM 7.0835 2.0453
3/25/2021 10:45:00 PM 7.0764 1.9517
3/25/2021 11:00:00 PM 7.0765 1.9371
3/25/2021 11:15:00 PM 7.0845 1.9342
3/25/2021 11:30:00 PM 7.0788 1.9501
3/25/2021 11:45:00 PM 7.0784 1.9001
3/26/2021 12:00:00 AM 7.0744 1.9417
3/26/2021 12:15:00 AM 7.0804 1.9469
3/26/2021 12:30:00 AM 7.0775 1.9557
3/26/2021 12:45:00 AM 7.0713 1.951
3/26/2021 1:00:00 AM 7.0706 1.9555
3/26/2021 1:15:00 AM 7.0766 1.9448
3/26/2021 1:30:00 AM 7.0755 1.9352
3/26/2021 1:45:00 AM 7.0715 1.9719
3/26/2021 2:00:00 AM 7.0666 2.0185
3/26/2021 2:15:00 AM 7.0686 2.0209
3/26/2021 2:30:00 AM 7.0747 2.0874
3/26/2021 2:45:00 AM 7.0686 2.1002
3/26/2021 3:00:00 AM 7.062 2.0444
3/26/2021 3:15:00 AM 7.0594 1.9961
3/26/2021 3:30:00 AM 7.0671 1.9627
3/26/2021 3:45:00 AM 7.067 2.0192
3/26/2021 4:00:00 AM 7.0601 1.9915
3/26/2021 4:15:00 AM 7.0548 2.0291
3/26/2021 4:30:00 AM 7.0581 2.0471
3/26/2021 4:45:00 AM 7.063 2.0338
3/26/2021 5:00:00 AM 7.0558 2.0509
3/26/2021 5:15:00 AM 7.0514 2.0857
3/26/2021 5:30:00 AM 7.0492 2.0391
3/26/2021 5:45:00 AM 7.0518 2.0002
3/26/2021 6:00:00 AM 7.0472 1.9898
3/26/2021 6:15:00 AM 7.0484 1.9274
3/26/2021 6:30:00 AM 7.0479 1.9367
3/26/2021 6:45:00 AM 7.0484 1.9581
3/26/2021 7:00:00 AM 7.0462 1.9622
3/26/2021 7:15:00 AM 7.043 1.9404
3/26/2021 7:30:00 AM 7.0418 1.9594
3/26/2021 7:45:00 AM 7.0392 1.9241
3/26/2021 8:00:00 AM 7.0389 1.8823
3/26/2021 8:15:00 AM 7.0344 1.8779
3/26/2021 8:30:00 AM 7.034 1.8461
3/26/2021 8:45:00 AM 7.035 1.8999
3/26/2021 9:00:00 AM 7.0353 1.8297
3/26/2021 9:15:00 AM 7.0343 1.8477
3/26/2021 9:30:00 AM 7.0358 1.8555
3/26/2021 9:45:00 AM 7.0383 1.9372
3/26/2021 10:00:00 AM 7.0387 2.0871
3/26/2021 10:15:00 AM 7.0389 3.3088
3/26/2021 10:30:00 AM 7.0348 4.267
3/26/2021 10:45:00 AM 7.0342 4.9972
3/26/2021 11:00:00 AM 7.0299 5.9965
3/26/2021 11:15:00 AM 7.0253 6.7176
3/26/2021 11:30:00 AM 7.0259 6.3848
3/26/2021 11:45:00 AM 7.0266 6
3/26/2021 12:00:00 PM 7.0376 5.1683
3/26/2021 12:15:00 PM 7.0423 4.8637
3/26/2021 12:30:00 PM 7.0475 4.3547
3/26/2021 12:45:00 PM 7.0538 3.9042
3/26/2021 1:00:00 PM 7.0529 4.6501
3/26/2021 1:15:00 PM 7.0517 5.7916
3/26/2021 1:30:00 PM 7.0522 5.896
3/26/2021 1:45:00 PM 7.0546 5.3414
3/26/2021 2:00:00 PM 7.0593 5.0358
3/26/2021 2:15:00 PM 7.0624 5.0944
3/26/2021 2:30:00 PM 7.0628 5.3182
3/26/2021 2:45:00 PM 7.0623 5.4855
3/26/2021 3:00:00 PM 7.0648 5.2683
3/26/2021 3:15:00 PM 7.0697 5.1157
3/26/2021 3:30:00 PM 7.0743 4.8291
3/26/2021 3:45:00 PM 7.0768 4.5399
3/26/2021 4:00:00 PM 7.0823 4.3155
3/26/2021 4:15:00 PM 7.0825 4.4267
3/26/2021 4:30:00 PM 7.0826 4.2584
3/26/2021 4:45:00 PM 7.0817 4.1989
3/26/2021 5:00:00 PM 7.0833 4.3178
3/26/2021 5:15:00 PM 7.0819 4.5889
3/26/2021 5:30:00 PM 7.0827 4.5802
3/26/2021 5:45:00 PM 7.0826 4.4999
3/26/2021 6:00:00 PM 7.0879 4.3175
3/26/2021 6:15:00 PM 7.0875 3.9334
3/26/2021 6:30:00 PM 7.0873 3.5429
3/26/2021 6:45:00 PM 7.0904 3.111
3/26/2021 7:00:00 PM 7.0919 2.7712
3/26/2021 7:15:00 PM 7.0922 2.4964
3/26/2021 7:30:00 PM 7.0903 2.2667
3/26/2021 7:45:00 PM 7.087 2.1684
3/26/2021 8:00:00 PM 7.087 2.11
3/26/2021 8:15:00 PM 7.0843 2.0275
3/26/2021 8:30:00 PM 7.0806 2.0517
3/26/2021 8:45:00 PM 7.0798 2.1
3/26/2021 9:00:00 PM 7.076 1.9572
3/26/2021 9:15:00 PM 7.0735 1.9844
3/26/2021 9:30:00 PM 7.0731 1.9707
3/26/2021 9:45:00 PM 7.0723 1.9459
3/26/2021 10:00:00 PM 7.0718 1.9387
3/26/2021 10:15:00 PM 7.0587 3.099
3/26/2021 10:30:00 PM 7.0536 3.1081
3/26/2021 10:45:00 PM 7.055 2.6137
3/26/2021 11:00:00 PM 7.0566 2.5271
3/26/2021 11:15:00 PM 7.058 2.4667
3/26/2021 11:30:00 PM 7.0586 2.3725
3/26/2021 11:45:00 PM 7.0602 2.4
3/27/2021 12:00:00 AM 7.059 2.2575
3/27/2021 12:15:00 AM 7.0585 2.2234
3/27/2021 12:30:00 AM 7.0589 2.1871
3/27/2021 12:45:00 AM 7.0585 2.1927
3/27/2021 1:00:00 AM 7.0582 2.1536
3/27/2021 1:15:00 AM 7.0584 2.1714
3/27/2021 1:30:00 AM 7.0581 2.1589
3/27/2021 1:45:00 AM 7.0586 2.1512
3/27/2021 2:00:00 AM 7.0551 2.1464
3/27/2021 2:15:00 AM 7.0539 2.1438
3/27/2021 2:30:00 AM 7.0532 2.1432
3/27/2021 2:45:00 AM 7.056 2.3999
3/27/2021 3:00:00 AM 7.0566 2.1299
3/27/2021 3:15:00 AM 7.0515 1.9267
3/27/2021 3:30:00 AM 7.051 1.942
3/27/2021 3:45:00 AM 7.0492 1.9334
3/27/2021 4:00:00 AM 7.0493 1.9317
3/27/2021 4:15:00 AM 7.0486 1.9256
3/27/2021 4:30:00 AM 7.0445 1.9683
3/27/2021 4:45:00 AM 7.0426 2.0009
3/27/2021 5:00:00 AM 7.0408 1.9516
3/27/2021 5:15:00 AM 7.041 1.953
3/27/2021 5:30:00 AM 7.0385 1.9348
3/27/2021 5:45:00 AM 7.0364 1.9999
3/27/2021 6:00:00 AM 7.0299 1.9492
3/27/2021 6:15:00 AM 7.0429 1.8413
3/27/2021 6:30:00 AM 7.0445 1.8424
3/27/2021 6:45:00 AM 7.0444 1.8526
3/27/2021 7:00:00 AM 7.0441 1.8217
3/27/2021 7:15:00 AM 7.0436 1.7664
3/27/2021 7:30:00 AM 7.044 1.7442
3/27/2021 7:45:00 AM 7.0388 1.7345
3/27/2021 8:00:00 AM 7.0414 1.7524
3/27/2021 8:15:00 AM 7.0405 1.7436
3/27/2021 8:30:00 AM 7.0405 1.6724
3/27/2021 8:45:00 AM 7.0406 1.7003
3/27/2021 9:00:00 AM 7.039 1.6377
3/27/2021 9:15:00 AM 7.0404 1.6227
3/27/2021 9:30:00 AM 7.0396 1.7581
3/27/2021 9:45:00 AM 7.0432 1.736
3/27/2021 10:00:00 AM 7.0438 1.6472
3/27/2021 10:15:00 AM 7.0445 1.6172
3/27/2021 10:30:00 AM 7.0436 1.5726
3/27/2021 10:45:00 AM 7.0438 1.5345
3/27/2021 11:00:00 AM 7.0481 1.5318
3/27/2021 11:15:00 AM 7.0479 1.5445
3/27/2021 11:30:00 AM 7.0523 1.5366
3/27/2021 11:45:00 AM 7.0546 1.5999
3/27/2021 12:00:00 PM 7.0533 1.559
3/27/2021 12:15:00 PM 7.0545 1.5173
3/27/2021 12:30:00 PM 7.0567 1.4874
3/27/2021 12:45:00 PM 7.0575 1.4637
3/27/2021 1:00:00 PM 7.0578 1.4743
3/27/2021 1:15:00 PM 7.0583 1.4431
3/27/2021 1:30:00 PM 7.0592 1.4694
3/27/2021 1:45:00 PM 7.0614 1.4766
3/27/2021 2:00:00 PM 7.0627 1.4487
3/27/2021 2:15:00 PM 7.0634 1.4239
3/27/2021 2:30:00 PM 7.066 1.476
3/27/2021 2:45:00 PM 7.0672 1.4299
3/27/2021 3:00:00 PM 7.0684 1.4883
3/27/2021 3:15:00 PM 7.0685 1.4925
3/27/2021 3:30:00 PM 7.0719 1.4683
3/27/2021 3:45:00 PM 7.0747 1.4848
3/27/2021 4:00:00 PM 7.0769 1.5167
3/27/2021 4:15:00 PM 7.0791 1.5444
3/27/2021 4:30:00 PM 7.0818 1.4567
3/27/2021 4:45:00 PM 7.0821 1.7402
3/27/2021 5:00:00 PM 7.0825 1.7003
3/27/2021 5:15:00 PM 7.0836 1.6128
3/27/2021 5:30:00 PM 7.0861 1.5403
3/27/2021 5:45:00 PM 7.0896 1.6
3/27/2021 6:00:00 PM 7.0907 1.5261
3/27/2021 6:15:00 PM 7.0918 1.532
3/27/2021 6:30:00 PM 7.0908 1.5036
3/27/2021 6:45:00 PM 7.089 1.4384
3/27/2021 7:00:00 PM 7.0878 1.4485
3/27/2021 7:15:00 PM 7.0876 1.4354
3/27/2021 7:30:00 PM 7.0872 1.4406
3/27/2021 7:45:00 PM 7.0836 1.4945
3/27/2021 8:00:00 PM 7.0802 1.5467
3/27/2021 8:15:00 PM 7.0758 1.5436
3/27/2021 8:30:00 PM 7.0729 1.5336
3/27/2021 8:45:00 PM 7.0658 1.5
3/27/2021 9:00:00 PM 7.0585 1.9098
3/27/2021 9:15:00 PM 7.0451 2.043
3/27/2021 9:30:00 PM 7.0451 1.9445
3/27/2021 9:45:00 PM 7.0432 1.8441
3/27/2021 10:00:00 PM 7.0425 1.8087
3/27/2021 10:15:00 PM 7.0399 1.7486
3/27/2021 10:30:00 PM 7.0386 1.7952
3/27/2021 10:45:00 PM 7.041 1.8114
3/27/2021 11:00:00 PM 7.0425 1.7488
3/27/2021 11:15:00 PM 7.0392 1.7638
3/27/2021 11:30:00 PM 7.0375 1.728
3/27/2021 11:45:00 PM 7.035 1.7001
3/28/2021 12:00:00 AM 7.0331 1.7447
3/28/2021 12:15:00 AM 7.0337 1.7426
3/28/2021 12:30:00 AM 7.0332 1.7534
3/28/2021 12:45:00 AM 7.0293 1.6947
3/28/2021 1:00:00 AM 7.0292 1.747
3/28/2021 1:15:00 AM 7.0286 1.7423
3/28/2021 1:30:00 AM 7.0291 1.7596
3/28/2021 1:45:00 AM 7.0265 1.8496
3/28/2021 2:00:00 AM 7.0322 1.8199
3/28/2021 2:15:00 AM 7.0314 1.7872
3/28/2021 2:30:00 AM 7.0291 1.7589
3/28/2021 2:45:00 AM 7.0266 1.7
3/28/2021 3:00:00 AM 7.0286 1.7588
3/28/2021 3:15:00 AM 7.0264 1.8328
3/28/2021 3:30:00 AM 7.0261 1.7915
3/28/2021 3:45:00 AM 7.0245 1.7251
3/28/2021 4:00:00 AM 7.0244 1.7468
3/28/2021 4:15:00 AM 7.0239 1.7271
3/28/2021 4:30:00 AM 7.0235 1.7376
3/28/2021 4:45:00 AM 7.0231 1.7344
3/28/2021 5:00:00 AM 6.9923 1.8315
3/28/2021 5:15:00 AM 7.0193 1.6313
3/28/2021 5:30:00 AM 7.0264 1.66
3/28/2021 5:45:00 AM 7.0252 1.6
3/28/2021 6:00:00 AM 7.0291 1.6439
3/28/2021 6:15:00 AM 7.0295 1.6544
3/28/2021 6:30:00 AM 7.0281 1.6532
3/28/2021 6:45:00 AM 7.027 1.6153
3/28/2021 7:00:00 AM 7.0247 1.5789
3/28/2021 7:15:00 AM 7.0245 1.6156
3/28/2021 7:30:00 AM 7.0244 1.5983
3/28/2021 7:45:00 AM 7.0245 1.5708
3/28/2021 8:00:00 AM 7.0225 1.5375
3/28/2021 8:15:00 AM 7.0195 1.5253
3/28/2021 8:30:00 AM 7.0192 1.6532
3/28/2021 8:45:00 AM 7.0168 1.8
3/28/2021 9:00:00 AM 7.0149 1.7923
3/28/2021 9:15:00 AM 7.0149 1.7447
3/28/2021 9:30:00 AM 7.0147 1.6621
3/28/2021 9:45:00 AM 7.0151 1.6421
3/28/2021 10:00:00 AM 7.0164 1.6033
3/28/2021 10:15:00 AM 7.0163 1.5358
3/28/2021 10:30:00 AM 7.0174 1.5288
3/28/2021 10:45:00 AM 7.0183 1.5537
3/28/2021 11:00:00 AM 7.0197 1.5053
3/28/2021 11:15:00 AM 7.0208 1.4767
3/28/2021 11:30:00 AM 7.024 1.4518
3/28/2021 11:45:00 AM 7.0252 1.5
3/28/2021 12:00:00 PM 7.0263 1.4686
3/28/2021 12:15:00 PM 7.0284 1.4295
3/28/2021 12:30:00 PM 7.0308 1.4594
3/28/2021 12:45:00 PM 7.034 1.4448
3/28/2021 1:00:00 PM 7.0337 1.4571
3/28/2021 1:15:00 PM 7.0372 1.5194
3/28/2021 1:30:00 PM 7.0387 1.6018
3/28/2021 1:45:00 PM 7.0397 1.5452
3/28/2021 2:00:00 PM 7.0422 1.6215
3/28/2021 2:15:00 PM 7.0438 1.6006
3/28/2021 2:30:00 PM 7.0466 1.5206
3/28/2021 2:45:00 PM 7.0483 1.4291
3/28/2021 3:00:00 PM 7.0514 1.4706
3/28/2021 3:15:00 PM 7.052 1.7064
3/28/2021 3:30:00 PM 7.053 2.1612
3/28/2021 3:45:00 PM 7.0539 2.1046
3/28/2021 4:00:00 PM 7.0596 1.7682
3/28/2021 4:15:00 PM 7.0624 1.6808
3/28/2021 4:30:00 PM 7.0634 1.8519
3/28/2021 4:45:00 PM 7.0661 2.5511
3/28/2021 5:00:00 PM 7.0629 3.5472
3/28/2021 5:15:00 PM 7.0657 3.0407
3/28/2021 5:30:00 PM 7.0725 2.4208
3/28/2021 5:45:00 PM 7.0784 2.299
3/28/2021 6:00:00 PM 7.085 2.509
3/28/2021 6:15:00 PM 7.0865 2.4929
3/28/2021 6:30:00 PM 7.0868 2.6474
3/28/2021 6:45:00 PM 7.0782 3.7778
3/28/2021 7:00:00 PM 7.07 4.9915
3/28/2021 7:15:00 PM 7.0774 3.0004
3/28/2021 7:30:00 PM 7.0789 2.5401
3/28/2021 7:45:00 PM 7.077 2.3789
3/28/2021 8:00:00 PM 7.0768 2.2861
3/28/2021 8:15:00 PM 7.075 2.3654
3/28/2021 8:30:00 PM 7.0725 2.7052
3/28/2021 8:45:00 PM 7.07 2.9999
3/28/2021 9:00:00 PM 7.0673 3.6288
3/28/2021 9:15:00 PM 7.0617 3.9677
3/28/2021 9:30:00 PM 7.0564 4.2859
3/28/2021 9:45:00 PM 7.0484 4.2264
3/28/2021 10:00:00 PM 7.0397 4.0309
3/28/2021 10:15:00 PM 7.0383 3.8748
3/28/2021 10:30:00 PM 7.0324 4.7018
3/28/2021 10:45:00 PM 7.0297 5.0508
3/28/2021 11:00:00 PM 7.0294 4.8109
3/28/2021 11:15:00 PM 7.033 4.5726
3/28/2021 11:30:00 PM 7.0344 4.5663
3/28/2021 11:45:00 PM 7.0364 4.7998
3/29/2021 12:00:00 AM 7.0354 4.0693
3/29/2021 12:15:00 AM 7.0382 3.5985
3/29/2021 12:30:00 AM 7.038 4.3619
3/29/2021 12:45:00 AM 7.0381 4.612
3/29/2021 1:00:00 AM 7.0386 4.4586
3/29/2021 1:15:00 AM 7.0402 3.9572
3/29/2021 1:30:00 AM 7.0419 3.5036
3/29/2021 1:45:00 AM 7.0409 3.2026
3/29/2021 2:00:00 AM 7.0434 3.0857
3/29/2021 2:15:00 AM 7.0432 3.1326
3/29/2021 2:30:00 AM 7.0469 3.3206
3/29/2021 2:45:00 AM 7.049 3.4998
3/29/2021 3:00:00 AM 7.0441 3.5409
3/29/2021 3:15:00 AM 7.0418 3.6413
3/29/2021 3:30:00 AM 7.039 3.8654
3/29/2021 3:45:00 AM 7.0392 4.2784
3/29/2021 4:00:00 AM 7.0392 4.166
3/29/2021 4:15:00 AM 7.0389 3.8922
3/29/2021 4:30:00 AM 7.04 3.5775
3/29/2021 4:45:00 AM 7.0303 3.5533
3/29/2021 5:00:00 AM 7.0325 3.4727
3/29/2021 5:15:00 AM 7.046 3.5112
3/29/2021 5:30:00 AM 7.0501 3.3073
3/29/2021 5:45:00 AM 7.0504 3.1
3/29/2021 6:00:00 AM 7.0507 2.6912
3/29/2021 6:15:00 AM 7.0533 2.5091
3/29/2021 6:30:00 AM 7.0488 2.4525
3/29/2021 6:45:00 AM 7.0486 2.4492
3/29/2021 7:00:00 AM 7.0482 2.4192
3/29/2021 7:15:00 AM 7.0484 2.3034
3/29/2021 7:30:00 AM 7.0479 2.2294
3/29/2021 7:45:00 AM 7.0443 2.1775
3/29/2021 8:00:00 AM 7.0462 2.1529
3/29/2021 8:15:00 AM 7.046 2.0445
3/29/2021 8:30:00 AM 7.0434 2.0342
3/29/2021 8:45:00 AM 7.0434 2.0004
3/29/2021 9:00:00 AM 7.0442 1.9657
3/29/2021 9:15:00 AM 7.0446 1.9416
3/29/2021 9:30:00 AM 7.0476 1.9357
3/29/2021 9:45:00 AM 7.0481 1.9307
3/29/2021 10:00:00 AM 7.0533 1.8446
3/29/2021 10:15:00 AM 7.0576 1.834
3/29/2021 10:30:00 AM 7.0609 1.7321
3/29/2021 10:45:00 AM 7.0641 1.7051
3/29/2021 11:00:00 AM 7.0682 1.6361
3/29/2021 11:15:00 AM 7.0724 1.659
3/29/2021 11:30:00 AM 7.0757 1.7109
3/29/2021 11:45:00 AM 7.0742 1.8001
3/29/2021 12:00:00 PM 7.0826 1.7786
3/29/2021 12:15:00 PM 7.0892 1.6877
3/29/2021 12:30:00 PM 7.0905 1.6561
3/29/2021 12:45:00 PM 7.0946 1.6151
3/29/2021 1:00:00 PM 7.0972 1.659
3/29/2021 1:15:00 PM 7.1008 1.6929
3/29/2021 1:30:00 PM 7.1021 1.775
3/29/2021 1:45:00 PM 7.1065 1.7408
3/29/2021 2:00:00 PM 7.1103 1.7282
3/29/2021 2:15:00 PM 7.111 1.6572
3/29/2021 2:30:00 PM 7.1136 1.6518
3/29/2021 2:45:00 PM 7.1167 1.5772
3/29/2021 3:00:00 PM 7.1206 1.5264
3/29/2021 3:15:00 PM 7.1253 1.5339
3/29/2021 3:30:00 PM 7.1262 1.5528
3/29/2021 3:45:00 PM 7.1309 1.4926
3/29/2021 4:00:00 PM 7.13 1.44
3/29/2021 4:15:00 PM 7.1331 1.4263
3/29/2021 4:30:00 PM 7.1351 1.4371
3/29/2021 4:45:00 PM 7.1373 1.459
3/29/2021 5:00:00 PM 7.1395 1.4461
3/29/2021 5:15:00 PM 7.1402 1.4486
3/29/2021 5:30:00 PM 7.1404 1.4482
3/29/2021 5:45:00 PM 7.1372 1.4002
3/29/2021 6:00:00 PM 7.1445 1.4269
3/29/2021 6:15:00 PM 7.1446 1.5493
3/29/2021 6:30:00 PM 7.1401 1.6262
3/29/2021 6:45:00 PM 7.1384 1.6957
3/29/2021 7:00:00 PM 7.1344 1.8149
3/29/2021 7:15:00 PM 7.1289 1.8292
3/29/2021 7:30:00 PM 7.1248 1.8304
3/29/2021 7:45:00 PM 7.1205 1.8001
3/29/2021 8:00:00 PM 7.1176 1.7275
3/29/2021 8:15:00 PM 7.1049 2.3034
3/29/2021 8:30:00 PM 7.0969 2.0924
3/29/2021 8:45:00 PM 7.098 1.9
3/29/2021 9:00:00 PM 7.0921 1.8733
3/29/2021 9:15:00 PM 7.088 1.8402
3/29/2021 9:30:00 PM 7.0873 1.7715
3/29/2021 9:45:00 PM 7.0869 1.7328
3/29/2021 10:00:00 PM 7.0856 1.7404
3/29/2021 10:15:00 PM 7.0838 1.7283
3/29/2021 10:30:00 PM 7.0828 1.7043
3/29/2021 10:45:00 PM 7.0824 1.6637
3/29/2021 11:00:00 PM 7.0822 1.6182
3/29/2021 11:15:00 PM 7.0805 1.6415
3/29/2021 11:30:00 PM 7.0812 1.5947
3/29/2021 11:45:00 PM 7.0784 1.6
3/30/2021 12:00:00 AM 7.0822 1.5655
3/30/2021 12:15:00 AM 7.0818 1.5495
3/30/2021 12:30:00 AM 7.0792 1.5648
3/30/2021 12:45:00 AM 7.0777 1.5843
3/30/2021 1:00:00 AM 7.0804 1.5754
3/30/2021 1:15:00 AM 7.0802 1.6166
3/30/2021 1:30:00 AM 7.0784 1.5887
3/30/2021 1:45:00 AM 7.0808 1.6382
3/30/2021 2:00:00 AM 7.0802 1.5611
3/30/2021 2:15:00 AM 7.082 1.5367
3/30/2021 2:30:00 AM 7.0797 1.5305
3/30/2021 2:45:00 AM 7.077 1.5999
3/30/2021 3:00:00 AM 7.0774 1.5315
3/30/2021 3:15:00 AM 7.08 1.736
3/30/2021 3:30:00 AM 7.0777 1.7669
3/30/2021 3:45:00 AM 7.077 1.6978
3/30/2021 4:00:00 AM 7.0767 1.6042
3/30/2021 4:15:00 AM 7.0748 1.5357
3/30/2021 4:30:00 AM 7.0758 1.5289
3/30/2021 4:45:00 AM 7.0709 1.5439
3/30/2021 5:00:00 AM 7.0724 1.5483
3/30/2021 5:15:00 AM 7.0725 1.5967
3/30/2021 5:30:00 AM 7.0723 1.6313
3/30/2021 5:45:00 AM 7.0714 1.5999
3/30/2021 6:00:00 AM 7.0733 2.0338
3/30/2021 6:15:00 AM 7.056 2.3399
3/30/2021 6:30:00 AM 7.0704 1.7287
3/30/2021 6:45:00 AM 7.0796 1.4671
3/30/2021 7:00:00 AM 7.0822 1.4304
3/30/2021 7:15:00 AM 7.0814 1.4418
3/30/2021 7:30:00 AM 7.0818 1.3809
3/30/2021 7:45:00 AM 7.0816 1.3293
3/30/2021 8:00:00 AM 7.0815 1.3427
3/30/2021 8:15:00 AM 7.0821 1.3305
3/30/2021 8:30:00 AM 7.0822 1.3477
3/30/2021 8:45:00 AM 7.0826 1.3998
3/30/2021 9:00:00 AM 7.0841 1.4047
3/30/2021 9:15:00 AM 7.0833 1.5146
3/30/2021 9:30:00 AM 7.0892 1.5588
3/30/2021 9:45:00 AM 7.0867 2.2558
3/30/2021 10:00:00 AM 7.0863 1.5949
3/30/2021 10:15:00 AM 7.0862 1.4469
3/30/2021 10:30:00 AM 7.0866 1.4282
3/30/2021 10:45:00 AM 7.0871 1.426
3/30/2021 11:00:00 AM 7.0873 1.4309
3/30/2021 11:15:00 AM 7.0866 1.4361
3/30/2021 11:30:00 AM 7.0864 1.4398
3/30/2021 11:45:00 AM 7.0882 1.4001
3/30/2021 12:00:00 PM 7.086 1.4437
3/30/2021 12:15:00 PM 7.0866 1.4314
3/30/2021 12:30:00 PM 7.0863 1.4339
3/30/2021 12:45:00 PM 7.0874 1.4296
3/30/2021 1:00:00 PM 7.0916 1.4212
3/30/2021 1:15:00 PM 7.0928 1.4507
3/30/2021 1:30:00 PM 7.0964 1.4343
3/30/2021 1:45:00 PM 7.1006 1.5061
3/30/2021 2:00:00 PM 7.1024 1.5401
3/30/2021 2:15:00 PM 7.1077 1.5215
3/30/2021 2:30:00 PM 7.112 1.5539
3/30/2021 2:45:00 PM 7.1152 1.4754
3/30/2021 3:00:00 PM 7.1181 1.4314
3/30/2021 3:15:00 PM 7.1215 1.4313
3/30/2021 3:30:00 PM 7.1246 1.431
3/30/2021 3:45:00 PM 7.1251 1.4441
3/30/2021 4:00:00 PM 7.1268 1.4376
3/30/2021 4:15:00 PM 7.13 1.4454
3/30/2021 4:30:00 PM 7.1305 1.4005
3/30/2021 4:45:00 PM 7.1323 1.4202
3/30/2021 5:00:00 PM 7.1346 1.4498
3/30/2021 5:15:00 PM 7.1361 1.5999
3/30/2021 5:30:00 PM 7.1373 1.8412
3/30/2021 5:45:00 PM 7.1358 2.0002
3/30/2021 6:00:00 PM 7.1348 1.9885
3/30/2021 6:15:00 PM 7.1344 1.7856
3/30/2021 6:30:00 PM 7.1347 1.6004
3/30/2021 6:45:00 PM 7.1352 1.5204
3/30/2021 7:00:00 PM 7.1342 1.466
3/30/2021 7:15:00 PM 7.1299 1.3924
3/30/2021 7:30:00 PM 7.1286 1.3522
3/30/2021 7:45:00 PM 7.1255 1.3279
3/30/2021 8:00:00 PM 7.1247 1.4621
3/30/2021 8:15:00 PM 7.1123 1.7764
3/30/2021 8:30:00 PM 7.1002 1.6439
3/30/2021 8:45:00 PM 7.0966 1.6003
3/30/2021 9:00:00 PM 7.0868 1.524
3/30/2021 9:15:00 PM 7.0818 1.5208
3/30/2021 9:30:00 PM 7.0793 1.4825
3/30/2021 9:45:00 PM 7.0774 1.4788
3/30/2021 10:00:00 PM 7.0777 1.455
3/30/2021 10:15:00 PM 7.0768 1.4353
3/30/2021 10:30:00 PM 7.0735 1.4301
3/30/2021 10:45:00 PM 7.0724 1.4346
3/30/2021 11:00:00 PM 7.0699 1.455
3/30/2021 11:15:00 PM 7.0688 1.4495
3/30/2021 11:30:00 PM 7.0677 1.4353
3/30/2021 11:45:00 PM 7.0658 1.4
3/31/2021 12:00:00 AM 7.0677 1.4232
3/31/2021 12:15:00 AM 7.068 1.4271
3/31/2021 12:30:00 AM 7.0664 1.4574
3/31/2021 12:45:00 AM 7.0648 1.4092
3/31/2021 1:00:00 AM 7.0645 1.4037
3/31/2021 1:15:00 AM 7.0638 1.4406
3/31/2021 1:30:00 AM 7.0635 1.4054
3/31/2021 1:45:00 AM 7.0654 1.3986
3/31/2021 2:00:00 AM 7.0626 1.4076
3/31/2021 2:15:00 AM 7.0629 1.3671
3/31/2021 2:30:00 AM 7.0619 1.3972
3/31/2021 2:45:00 AM 7.0616 1.3998
3/31/2021 3:00:00 AM 7.0577 1.3804
3/31/2021 3:15:00 AM 7.058 1.379
3/31/2021 3:30:00 AM 7.0567 1.3848
3/31/2021 3:45:00 AM 7.0564 1.3959
3/31/2021 4:00:00 AM 7.0578 1.3696
3/31/2021 4:15:00 AM 7.0585 1.3548
3/31/2021 4:30:00 AM 7.0579 1.3593
3/31/2021 4:45:00 AM 7.0583 1.3628
3/31/2021 5:00:00 AM 7.0575 1.4487
3/31/2021 5:15:00 AM 7.0581 1.4433
3/31/2021 5:30:00 AM 7.0575 1.4461
3/31/2021 5:45:00 AM 7.0574 1.4001
3/31/2021 6:00:00 AM 6.9314 1.4864
3/31/2021 6:15:00 AM 7.0156 1.4289
3/31/2021 6:30:00 AM 7.0423 1.3518
3/31/2021 6:45:00 AM 7.0486 1.4123
3/31/2021 7:00:00 AM 7.0505 1.4061
3/31/2021 7:15:00 AM 7.0522 1.3417
3/31/2021 7:30:00 AM 7.0514 1.3311
3/31/2021 7:45:00 AM 7.0499 1.3334
3/31/2021 8:00:00 AM 7.0487 1.3327
3/31/2021 8:15:00 AM 7.0489 1.2485
3/31/2021 8:30:00 AM 7.0492 1.2261
3/31/2021 8:45:00 AM 7.0504 1.2998
3/31/2021 9:00:00 AM 7.0504 1.2349
3/31/2021 9:15:00 AM 7.0535 1.3996
3/31/2021 9:30:00 AM 7.0593 1.4372
3/31/2021 9:45:00 AM 7.0546 2.6246
3/31/2021 10:00:00 AM 7.0577 1.4879
3/31/2021 10:15:00 AM 7.0592 1.323
3/31/2021 10:30:00 AM 7.0637 1.2478
3/31/2021 10:45:00 AM 7.0679 1.2497
3/31/2021 11:00:00 AM 7.068 1.2431
3/31/2021 11:15:00 AM 7.071 1.2193
3/31/2021 11:30:00 AM 7.0724 1.1997
3/31/2021 11:45:00 AM 7.07 1.1999
3/31/2021 12:00:00 PM 7.0769 1.1313
3/31/2021 12:15:00 PM 7.0788 1.1223
3/31/2021 12:30:00 PM 7.0817 1.1381
3/31/2021 12:45:00 PM 7.0841 1.2186
3/31/2021 1:00:00 PM 7.0865 1.2091
3/31/2021 1:15:00 PM 7.0872 1.1502
3/31/2021 1:30:00 PM 7.0875 1.1548
3/31/2021 1:45:00 PM 7.0869 1.2428
3/31/2021 2:00:00 PM 7.0882 1.2216
3/31/2021 2:15:00 PM 7.0891 1.2141
3/31/2021 2:30:00 PM 7.0914 1.2322
3/31/2021 2:45:00 PM 7.0917 1.2461
3/31/2021 3:00:00 PM 7.0917 1.2777
3/31/2021 3:15:00 PM 7.0933 1.2322
3/31/2021 3:30:00 PM 7.0943 1.2554
3/31/2021 3:45:00 PM 7.0947 1.158
3/31/2021 4:00:00 PM 7.093 1.1423
3/31/2021 4:15:00 PM 7.0916 1.2094
3/31/2021 4:30:00 PM 7.0917 1.1553
3/31/2021 4:45:00 PM 7.0912 1.1506
3/31/2021 5:00:00 PM 7.0907 1.1416
3/31/2021 5:15:00 PM 7.0899 1.1002
3/31/2021 5:30:00 PM 7.0875 1.1157
3/31/2021 5:45:00 PM 7.0896 1.1999
3/31/2021 6:00:00 PM 7.0852 1.1372
3/31/2021 6:15:00 PM 7.0826 1.1481
3/31/2021 6:30:00 PM 7.0821 1.1469
3/31/2021 6:45:00 PM 7.0791 1.1418
3/31/2021 7:00:00 PM 7.0773 1.1695
3/31/2021 7:15:00 PM 7.0731 1.2833
3/31/2021 7:30:00 PM 7.0715 1.2845
3/31/2021 7:45:00 PM 7.0669 1.3024
3/31/2021 8:00:00 PM 7.0671 1.3464
3/31/2021 8:15:00 PM 7.0651 1.3266
3/31/2021 8:30:00 PM 7.0602 1.3523
3/31/2021 8:45:00 PM 7.0574 1.3
3/31/2021 9:00:00 PM 7.4871 1.3249
3/31/2021 9:15:00 PM 7.8376 1.3392
3/31/2021 9:30:00 PM 8.0325 1.3386
3/31/2021 9:45:00 PM 7.8549 1.3682
3/31/2021 10:00:00 PM 7.7985 1.6603
3/31/2021 10:15:00 PM 7.8312 1.508
3/31/2021 10:30:00 PM 7.8181 1.3678
3/31/2021 10:45:00 PM 7.8016 1.3294
3/31/2021 11:00:00 PM 7.7802 1.265
3/31/2021 11:15:00 PM 7.7674 1.2555
3/31/2021 11:30:00 PM 7.7437 1.2491
3/31/2021 11:45:00 PM 7.6874 1.2997
4/1/2021 12:00:00 AM 7.589 1.2276
4/1/2021 12:15:00 AM 7.6244 1.2336
4/1/2021 12:30:00 AM 7.6655 1.2511
4/1/2021 12:45:00 AM 7.6958 1.2417
4/1/2021 1:00:00 AM 7.7146 1.2318
4/1/2021 1:15:00 AM 7.6553 1.2377
4/1/2021 1:30:00 AM 7.5598 1.2172
4/1/2021 1:45:00 AM 7.5697 1.2382
4/1/2021 2:00:00 AM 7.6122 1.243
4/1/2021 2:15:00 AM 7.6597 1.2289
4/1/2021 2:30:00 AM 7.6899 1.1723
4/1/2021 2:45:00 AM 7.658 1.2001
4/1/2021 3:00:00 AM 7.524 1.2372
4/1/2021 3:15:00 AM 7.5509 1.2499
4/1/2021 3:30:00 AM 7.5969 1.2611
4/1/2021 3:45:00 AM 7.6507 1.2478
4/1/2021 4:00:00 AM 7.6211 1.2357
4/1/2021 4:15:00 AM 7.5168 1.2294
4/1/2021 4:30:00 AM 7.5062 1.2355
4/1/2021 4:45:00 AM 7.5459 1.2974
4/1/2021 5:00:00 AM 7.5864 1.4106
4/1/2021 5:15:00 AM 7.609 1.2685
4/1/2021 5:30:00 AM 7.5104 1.2166
4/1/2021 5:45:00 AM 7.4774 1.3
4/1/2021 6:00:00 AM 7.5351 1.1691
4/1/2021 6:15:00 AM 7.5851 1.129
4/1/2021 6:30:00 AM 7.5651 1.1869
4/1/2021 6:45:00 AM 7.475 1.2516
4/1/2021 7:00:00 AM 7.4636 1.2779
4/1/2021 7:15:00 AM 7.51 1.246
4/1/2021 7:30:00 AM 7.5601 1.2289
4/1/2021 7:45:00 AM 7.604 1.1752
4/1/2021 8:00:00 AM 7.6145 1.2727
4/1/2021 8:15:00 AM 7.4817 1.3583
4/1/2021 8:30:00 AM 7.4258 1.2996
4/1/2021 8:45:00 AM 7.4312 1.2
4/1/2021 9:00:00 AM 7.5135 1.1556
4/1/2021 9:15:00 AM 7.5659 1.8714
4/1/2021 9:30:00 AM 7.5385 1.3409